Observation data for Bootleg on 02/15/2017      Previous  Date  Next       Current Mesonet Observations  Soil Data  Daily Summary Page  Observations in Plain Language
KBO1 150600Z 30009KT M02/M06 A3024 RMK A01 T10181055  RH  076%=      5-min Rain = 0
KBO1 150601Z 30009KT M02/M05 A3024 RMK A01 T10181054  RH  076%=      5-min Rain = 0
KBO1 150602Z 30008KT M02/M06 A3024 RMK A01 T10181055  RH  076%=      5-min Rain = 0
KBO1 150603Z 30008KT M02/M06 A3024 RMK A01 T10181055  RH  076%=      5-min Rain = 0
KBO1 150604Z 30008KT M02/M06 A3024 RMK A01 T10181055  RH  076%=      5-min Rain = 0
KBO1 150605Z 30008KT M02/M06 A3024 RMK A01 T10181055  RH  076%=      5-min Rain = 0
KBO1 150606Z 30008KT M02/M06 A3024 RMK A01 T10181055  RH  076%=      5-min Rain = 0
KBO1 150607Z 30009KT M02/M06 A3024 RMK A01 T10181055  RH  076%=      5-min Rain = 0
KBO1 150608Z 30009KT M02/M05 A3024 RMK A01 T10181054  RH  076%=      5-min Rain = 0
KBO1 150609Z 30009KT M02/M05 A3024 RMK A01 T10171053  RH  076%=      5-min Rain = 0
KBO1 150610Z 30009KT M02/M05 A3024 RMK A01 T10171053  RH  076%=      5-min Rain = 0
KBO1 150611Z 29009KT M02/M05 A3024 RMK A01 T10171054  RH  076%=      5-min Rain = 0
KBO1 150612Z 30008KT M02/M05 A3024 RMK A01 T10161054  RH  076%=      5-min Rain = 0
KBO1 150613Z 30008KT M02/M05 A3024 RMK A01 T10161054  RH  076%=      5-min Rain = 0
KBO1 150614Z 30008KT M02/M05 A3024 RMK A01 T10171054  RH  076%=      5-min Rain = 0
KBO1 150615Z 30008KT M02/M06 A3024 RMK A01 T10181055  RH  076%=      5-min Rain = 0
KBO1 150616Z 30008KT M02/M05 A3024 RMK A01 T10181054  RH  076%=      5-min Rain = 0
KBO1 150617Z 30008KT M02/M06 A3024 RMK A01 T10181055  RH  076%=      5-min Rain = 0
KBO1 150618Z 30009KT M02/M06 A3024 RMK A01 T10181055  RH  076%=      5-min Rain = 0
KBO1 150619Z 30009KT M02/M06 A3024 RMK A01 T10181055  RH  076%=      5-min Rain = 0
KBO1 150620Z 30009KT M02/M06 A3024 RMK A01 T10181055  RH  076%=      5-min Rain = 0
KBO1 150621Z 30009KT M02/M06 A3024 RMK A01 T10181055  RH  076%=      5-min Rain = 0
KBO1 150622Z 30009KT M02/M06 A3024 RMK A01 T10181055  RH  076%=      5-min Rain = 0
KBO1 150623Z 30009KT M02/M06 A3024 RMK A01 T10181055  RH  076%=      5-min Rain = 0
KBO1 150624Z 30009KT M02/M06 A3024 RMK A01 T10181055  RH  076%=      5-min Rain = 0
KBO1 150625Z 30009KT M02/M06 A3024 RMK A01 T10191056  RH  076%=      5-min Rain = 0
KBO1 150626Z 30009KT M02/M06 A3024 RMK A01 T10191056  RH  076%=      5-min Rain = 0
KBO1 150627Z 30009KT M02/M06 A3024 RMK A01 T10191056  RH  076%=      5-min Rain = 0
KBO1 150628Z 30009KT M02/M06 A3024 RMK A01 T10191056  RH  076%=      5-min Rain = 0
KBO1 150629Z 30009KT M02/M06 A3024 RMK A01 T10181055  RH  076%=      5-min Rain = 0
KBO1 150630Z 30009KT M02/M06 A3024 RMK A01 T10191056  RH  076%=      5-min Rain = 0
KBO1 150631Z 30009KT M02/M06 A3024 RMK A01 T10181056  RH  076%=      5-min Rain = 0
KBO1 150632Z 30008KT M02/M06 A3024 RMK A01 T10181056  RH  076%=      5-min Rain = 0
KBO1 150633Z 30008KT M02/M06 A3024 RMK A01 T10181056  RH  075%=      5-min Rain = 0
KBO1 150634Z 30009KT M02/M06 A3024 RMK A01 T10181056  RH  075%=      5-min Rain = 0
KBO1 150635Z 30009KT M02/M06 A3024 RMK A01 T10191056  RH  076%=      5-min Rain = 0
KBO1 150636Z 30009KT M02/M06 A3024 RMK A01 T10191056  RH  076%=      5-min Rain = 0
KBO1 150637Z 30009KT M02/M06 A3024 RMK A01 T10191056  RH  076%=      5-min Rain = 0
KBO1 150638Z 30010KT M02/M06 A3024 RMK A01 T10191056  RH  076%=      5-min Rain = 0
KBO1 150639Z 30009KT M02/M06 A3024 RMK A01 T10191056  RH  076%=      5-min Rain = 0
KBO1 150640Z 30009KT M02/M06 A3024 RMK A01 T10191056  RH  076%=      5-min Rain = 0
KBO1 150641Z 30009KT M02/M06 A3024 RMK A01 T10191057  RH  076%=      5-min Rain = 0
KBO1 150642Z 30009KT M02/M06 A3024 RMK A01 T10191057  RH  076%=      5-min Rain = 0
KBO1 150643Z 30009KT M02/M06 A3024 RMK A01 T10201057  RH  076%=      5-min Rain = 0
KBO1 150644Z 30009KT M02/M06 A3024 RMK A01 T10201057  RH  076%=      5-min Rain = 0
KBO1 150645Z 30009KT M02/M06 A3024 RMK A01 T10201057  RH  076%=      5-min Rain = 0
KBO1 150646Z 30009KT M02/M06 A3024 RMK A01 T10201057  RH  076%=      5-min Rain = 0
KBO1 150647Z 30009KT M02/M06 A3024 RMK A01 T10191057  RH  076%=      5-min Rain = 0
KBO1 150648Z 30009KT M02/M06 A3024 RMK A01 T10191057  RH  076%=      5-min Rain = 0
KBO1 150649Z 30009KT M02/M06 A3024 RMK A01 T10191056  RH  076%=      5-min Rain = 0
KBO1 150650Z 30009KT M02/M06 A3024 RMK A01 T10191056  RH  076%=      5-min Rain = 0
KBO1 150651Z 30010KT M02/M06 A3024 RMK A01 T10191056  RH  076%=      5-min Rain = 0
KBO1 150652Z 30009KT M02/M06 A3024 RMK A01 T10191056  RH  076%=      5-min Rain = 0
KBO1 150653Z 30009KT M02/M06 A3024 RMK A01 T10191056  RH  076%=      5-min Rain = 0
KBO1 150654Z 30009KT M02/M06 A3024 RMK A01 T10191056  RH  076%=      5-min Rain = 0
KBO1 150655Z 30009KT M02/M06 A3024 RMK A01 T10191056  RH  076%=      5-min Rain = 0
KBO1 150656Z 30009KT M02/M06 A3024 RMK A01 T10191056  RH  076%=      5-min Rain = 0
KBO1 150657Z 30009KT M02/M06 A3024 RMK A01 T10191056  RH  076%=      5-min Rain = 0
KBO1 150658Z 30009KT M02/M06 A3024 RMK A01 T10201056  RH  076%=      5-min Rain = 0
KBO1 150659Z 30009KT M02/M06 A3024 RMK A01 T10191056  RH  076%=      5-min Rain = 0
KBO1 150700Z 30009KT M02/M06 A3024 RMK A01 T10201056  RH  076%=      5-min Rain = 0
KBO1 150701Z 30008KT M02/M06 A3024 RMK A01 T10201056  RH  076%=      5-min Rain = 0
KBO1 150702Z 30008KT M02/M06 A3024 RMK A01 T10201056  RH  076%=      5-min Rain = 0
KBO1 150703Z 29009KT M02/M06 A3024 RMK A01 T10191056  RH  076%=      5-min Rain = 0
KBO1 150704Z 30009KT M02/M06 A3024 RMK A01 T10201056  RH  076%=      5-min Rain = 0
KBO1 150705Z 29009KT M02/M06 A3024 RMK A01 T10191056  RH  076%=      5-min Rain = 0
KBO1 150706Z 30009KT M02/M06 A3024 RMK A01 T10201056  RH  076%=      5-min Rain = 0
KBO1 150707Z 30010KT M02/M06 A3024 RMK A01 T10191056  RH  076%=      5-min Rain = 0
KBO1 150708Z 30009KT M02/M06 A3024 RMK A01 T10191056  RH  076%=      5-min Rain = 0
KBO1 150709Z 30009KT M02/M06 A3024 RMK A01 T10191056  RH  076%=      5-min Rain = 0
KBO1 150710Z 30009KT M02/M06 A3024 RMK A01 T10191056  RH  076%=      5-min Rain = 0
KBO1 150711Z 30009KT M02/M06 A3024 RMK A01 T10181056  RH  076%=      5-min Rain = 0
KBO1 150712Z 30009KT M02/M06 A3024 RMK A01 T10191056  RH  076%=      5-min Rain = 0
KBO1 150713Z 29008KT M02/M06 A3024 RMK A01 T10191056  RH  076%=      5-min Rain = 0
KBO1 150714Z 30008KT M02/M06 A3024 RMK A01 T10181055  RH  076%=      5-min Rain = 0
KBO1 150715Z 30008KT M02/M06 A3024 RMK A01 T10191055  RH  076%=      5-min Rain = 0
KBO1 150716Z 29007KT M02/M06 A3024 RMK A01 T10191055  RH  076%=      5-min Rain = 0
KBO1 150717Z 29008KT M02/M06 A3024 RMK A01 T10191056  RH  076%=      5-min Rain = 0
KBO1 150718Z 29009KT M02/M06 A3024 RMK A01 T10201056  RH  077%=      5-min Rain = 0
KBO1 150719Z 29008KT M02/M06 A3024 RMK A01 T10201055  RH  077%=      5-min Rain = 0
KBO1 150720Z 29008KT M02/M06 A3024 RMK A01 T10191055  RH  077%=      5-min Rain = 0
KBO1 150721Z 29009KT M02/M06 A3024 RMK A01 T10191055  RH  077%=      5-min Rain = 0
KBO1 150722Z 29008KT M02/M06 A3024 RMK A01 T10191055  RH  077%=      5-min Rain = 0
KBO1 150723Z 29008KT M02/M05 A3024 RMK A01 T10191054  RH  077%=      5-min Rain = 0
KBO1 150724Z 29008KT M02/M05 A3024 RMK A01 T10191054  RH  077%=      5-min Rain = 0
KBO1 150725Z 29008KT M02/M05 A3024 RMK A01 T10191054  RH  077%=      5-min Rain = 0
KBO1 150726Z 30008KT M02/M05 A3024 RMK A01 T10191054  RH  077%=      5-min Rain = 0
KBO1 150727Z 30008KT M02/M05 A3024 RMK A01 T10191054  RH  077%=      5-min Rain = 0
KBO1 150728Z 29008KT M02/M05 A3024 RMK A01 T10191054  RH  077%=      5-min Rain = 0
KBO1 150729Z 30008KT M02/M05 A3024 RMK A01 T10191054  RH  077%=      5-min Rain = 0
KBO1 150730Z 30008KT M02/M05 A3024 RMK A01 T10191054  RH  077%=      5-min Rain = 0
KBO1 150731Z 29008KT M02/M05 A3024 RMK A01 T10191054  RH  077%=      5-min Rain = 0
KBO1 150732Z 29008KT M02/M05 A3024 RMK A01 T10191054  RH  077%=      5-min Rain = 0
KBO1 150733Z 29008KT M02/M05 A3024 RMK A01 T10191054  RH  077%=      5-min Rain = 0
KBO1 150734Z 29009KT M02/M05 A3024 RMK A01 T10201054  RH  077%=      5-min Rain = 0
KBO1 150735Z 29009KT M02/M05 A3024 RMK A01 T10201054  RH  077%=      5-min Rain = 0
KBO1 150736Z 30009KT M02/M05 A3024 RMK A01 T10201054  RH  077%=      5-min Rain = 0
KBO1 150737Z 29009KT M02/M05 A3024 RMK A01 T10201054  RH  078%=      5-min Rain = 0
KBO1 150738Z 29009KT M02/M05 A3024 RMK A01 T10201054  RH  077%=      5-min Rain = 0
KBO1 150739Z 29009KT M02/M05 A3024 RMK A01 T10201054  RH  077%=      5-min Rain = 0
KBO1 150740Z 29009KT M02/M05 A3024 RMK A01 T10201054  RH  077%=      5-min Rain = 0
KBO1 150741Z 29009KT M02/M06 A3024 RMK A01 T10211055  RH  077%=      5-min Rain = 0
KBO1 150742Z 29009KT M02/M06 A3024 RMK A01 T10211055  RH  078%=      5-min Rain = 0
KBO1 150743Z 29010KT M02/M06 A3024 RMK A01 T10221055  RH  078%=      5-min Rain = 0
KBO1 150744Z 29011KT M02/M06 A3024 RMK A01 T10221055  RH  078%=      5-min Rain = 0
KBO1 150745Z 29010KT M02/M06 A3024 RMK A01 T10221055  RH  078%=      5-min Rain = 0
KBO1 150746Z 29011KT M02/M06 A3024 RMK A01 T10221055  RH  078%=      5-min Rain = 0
KBO1 150747Z 29011KT M02/M05 A3024 RMK A01 T10221054  RH  078%=      5-min Rain = 0
KBO1 150748Z 29011KT M02/M05 A3024 RMK A01 T10211054  RH  078%=      5-min Rain = 0
KBO1 150749Z 29010KT M02/M05 A3024 RMK A01 T10211054  RH  078%=      5-min Rain = 0
KBO1 150750Z 29011KT M02/M05 A3024 RMK A01 T10211054  RH  078%=      5-min Rain = 0
KBO1 150751Z 30011KT M02/M05 A3024 RMK A01 T10211054  RH  078%=      5-min Rain = 0
KBO1 150752Z 29011KT M02/M06 A3024 RMK A01 T10211055  RH  078%=      5-min Rain = 0
KBO1 150753Z 29010KT M02/M06 A3024 RMK A01 T10211055  RH  078%=      5-min Rain = 0
KBO1 150754Z 29009KT M02/M06 A3024 RMK A01 T10211055  RH  077%=      5-min Rain = 0
KBO1 150755Z 29009KT M02/M06 A3024 RMK A01 T10211055  RH  077%=      5-min Rain = 0
KBO1 150756Z 30009KT M02/M06 A3024 RMK A01 T10201055  RH  077%=      5-min Rain = 0
KBO1 150757Z 30009KT M02/M06 A3025 RMK A01 T10211055  RH  077%=      5-min Rain = 0
KBO1 150758Z 30009KT M02/M06 A3024 RMK A01 T10211056  RH  077%=      5-min Rain = 0
KBO1 150759Z 30009KT M02/M06 A3025 RMK A01 T10211055  RH  077%=      5-min Rain = 0
KBO1 150800Z 30009KT M02/M06 A3025 RMK A01 T10211055  RH  077%=      5-min Rain = 0
KBO1 150801Z 30009KT M02/M06 A3025 RMK A01 T10211055  RH  077%=      5-min Rain = 0
KBO1 150802Z 30008KT M02/M06 A3025 RMK A01 T10221056  RH  077%=      5-min Rain = 0
KBO1 150803Z 30007KT M02/M06 A3025 RMK A01 T10221056  RH  078%=      5-min Rain = 0
KBO1 150804Z 30008KT M02/M06 A3025 RMK A01 T10221056  RH  078%=      5-min Rain = 0
KBO1 150805Z 30007KT M02/M06 A3025 RMK A01 T10211055  RH  078%=      5-min Rain = 0
KBO1 150806Z 30008KT M02/M06 A3025 RMK A01 T10221055  RH  078%=      5-min Rain = 0
KBO1 150807Z 31009KT M02/M06 A3025 RMK A01 T10211055  RH  078%=      5-min Rain = 0
KBO1 150808Z 31008KT M02/M05 A3025 RMK A01 T10201054  RH  078%=      5-min Rain = 0
KBO1 150809Z 32006KT M02/M05 A3025 RMK A01 T10201053  RH  078%=      5-min Rain = 0
KBO1 150810Z 32005KT M02/M05 A3025 RMK A01 T10201054  RH  077%=      5-min Rain = 0
KBO1 150811Z 32005KT M02/M06 A3025 RMK A01 T10201055  RH  077%=      5-min Rain = 0
KBO1 150812Z 31006KT M02/M06 A3025 RMK A01 T10201055  RH  077%=      5-min Rain = 0
KBO1 150813Z 30006KT M02/M06 A3025 RMK A01 T10211056  RH  077%=      5-min Rain = 0
KBO1 150814Z 30008KT M02/M06 A3025 RMK A01 T10221056  RH  077%=      5-min Rain = 0
KBO1 150815Z 30009KT M02/M06 A3025 RMK A01 T10231056  RH  078%=      5-min Rain = 0
KBO1 150816Z 30009KT M02/M06 A3025 RMK A01 T10231055  RH  078%=      5-min Rain = 0
KBO1 150817Z 30008KT M02/M06 A3025 RMK A01 T10221055  RH  079%=      5-min Rain = 0
KBO1 150818Z 30008KT M02/M05 A3025 RMK A01 T10211054  RH  078%=      5-min Rain = 0
KBO1 150819Z 30008KT M02/M05 A3025 RMK A01 T10201054  RH  078%=      5-min Rain = 0
KBO1 150820Z 30008KT M02/M06 A3025 RMK A01 T10201055  RH  077%=      5-min Rain = 0
KBO1 150821Z 29008KT M02/M06 A3025 RMK A01 T10201055  RH  077%=      5-min Rain = 0
KBO1 150822Z 29008KT M02/M06 A3025 RMK A01 T10211055  RH  077%=      5-min Rain = 0
KBO1 150823Z 30008KT M02/M06 A3025 RMK A01 T10221055  RH  078%=      5-min Rain = 0
KBO1 150824Z 30008KT M02/M06 A3025 RMK A01 T10221055  RH  078%=      5-min Rain = 0
KBO1 150825Z 30008KT M02/M06 A3025 RMK A01 T10211055  RH  078%=      5-min Rain = 0
KBO1 150826Z 30006KT M02/M06 A3025 RMK A01 T10211055  RH  078%=      5-min Rain = 0
KBO1 150827Z 30006KT M02/M06 A3025 RMK A01 T10221056  RH  078%=      5-min Rain = 0
KBO1 150828Z 30006KT M02/M06 A3025 RMK A01 T10221056  RH  078%=      5-min Rain = 0
KBO1 150829Z 30007KT M02/M06 A3025 RMK A01 T10231056  RH  078%=      5-min Rain = 0
KBO1 150830Z 30008KT M02/M06 A3025 RMK A01 T10241056  RH  078%=      5-min Rain = 0
KBO1 150831Z 30008KT M02/M06 A3025 RMK A01 T10241056  RH  079%=      5-min Rain = 0
KBO1 150832Z 30007KT M03/M06 A3025 RMK A01 T10251056  RH  079%=      5-min Rain = 0
KBO1 150833Z 30008KT M03/M06 A3025 RMK A01 T10251056  RH  079%=      5-min Rain = 0
KBO1 150834Z 30007KT M03/M06 A3025 RMK A01 T10251057  RH  079%=      5-min Rain = 0
KBO1 150835Z 30007KT M03/M06 A3025 RMK A01 T10251056  RH  079%=      5-min Rain = 0
KBO1 150836Z 30008KT M03/M06 A3025 RMK A01 T10261057  RH  079%=      5-min Rain = 0
KBO1 150837Z 30008KT M03/M06 A3025 RMK A01 T10261057  RH  080%=      5-min Rain = 0
KBO1 150838Z 30008KT M03/M06 A3025 RMK A01 T10261056  RH  080%=      5-min Rain = 0
KBO1 150839Z 30008KT M03/M06 A3025 RMK A01 T10261056  RH  080%=      5-min Rain = 0
KBO1 150840Z 29008KT M03/M06 A3025 RMK A01 T10261056  RH  080%=      5-min Rain = 0
KBO1 150841Z 30009KT M03/M06 A3025 RMK A01 T10261056  RH  080%=      5-min Rain = 0
KBO1 150842Z 29009KT M03/M06 A3025 RMK A01 T10261056  RH  080%=      5-min Rain = 0
KBO1 150843Z 29009KT M03/M06 A3025 RMK A01 T10261056  RH  080%=      5-min Rain = 0
KBO1 150844Z 30009KT M03/M06 A3025 RMK A01 T10251056  RH  080%=      5-min Rain = 0
KBO1 150845Z 29009KT M03/M06 A3025 RMK A01 T10251055  RH  079%=      5-min Rain = 0
KBO1 150846Z 29009KT M03/M06 A3025 RMK A01 T10251055  RH  079%=      5-min Rain = 0
KBO1 150847Z 29009KT M02/M06 A3025 RMK A01 T10241055  RH  079%=      5-min Rain = 0
KBO1 150848Z 29009KT M03/M06 A3025 RMK A01 T10251056  RH  079%=      5-min Rain = 0
KBO1 150849Z 29009KT M03/M06 A3025 RMK A01 T10251055  RH  079%=      5-min Rain = 0
KBO1 150850Z 29009KT M03/M06 A3025 RMK A01 T10251055  RH  080%=      5-min Rain = 0
KBO1 150851Z 29009KT M03/M06 A3025 RMK A01 T10251055  RH  080%=      5-min Rain = 0
KBO1 150852Z 29009KT M03/M06 A3025 RMK A01 T10251055  RH  079%=      5-min Rain = 0
KBO1 150853Z 29008KT M02/M06 A3025 RMK A01 T10241055  RH  079%=      5-min Rain = 0
KBO1 150854Z 29008KT M02/M06 A3025 RMK A01 T10241055  RH  079%=      5-min Rain = 0
KBO1 150855Z 29009KT M02/M06 A3025 RMK A01 T10241056  RH  079%=      5-min Rain = 0
KBO1 150856Z 29008KT M03/M06 A3025 RMK A01 T10251056  RH  079%=      5-min Rain = 0
KBO1 150857Z 29009KT M03/M06 A3025 RMK A01 T10251056  RH  079%=      5-min Rain = 0
KBO1 150858Z 29009KT M03/M06 A3025 RMK A01 T10251056  RH  080%=      5-min Rain = 0
KBO1 150859Z 29009KT M03/M06 A3025 RMK A01 T10251055  RH  080%=      5-min Rain = 0
KBO1 150900Z 29009KT M03/M06 A3025 RMK A01 T10251056  RH  079%=      5-min Rain = 0
KBO1 150901Z 30009KT M03/M06 A3025 RMK A01 T10251056  RH  079%=      5-min Rain = 0
KBO1 150902Z 30009KT M03/M06 A3025 RMK A01 T10251056  RH  079%=      5-min Rain = 0
KBO1 150903Z 29009KT M03/M06 A3025 RMK A01 T10251056  RH  079%=      5-min Rain = 0
KBO1 150904Z 30009KT M03/M06 A3025 RMK A01 T10251056  RH  079%=      5-min Rain = 0
KBO1 150905Z 29009KT M03/M06 A3025 RMK A01 T10251056  RH  079%=      5-min Rain = 0
KBO1 150906Z 29009KT M03/M06 A3025 RMK A01 T10251056  RH  079%=      5-min Rain = 0
KBO1 150907Z 30009KT M03/M06 A3025 RMK A01 T10251056  RH  079%=      5-min Rain = 0
KBO1 150908Z 30008KT M03/M06 A3025 RMK A01 T10251056  RH  079%=      5-min Rain = 0
KBO1 150909Z 30008KT M03/M06 A3025 RMK A01 T10251056  RH  079%=      5-min Rain = 0
KBO1 150910Z 30009KT M03/M06 A3025 RMK A01 T10251056  RH  079%=      5-min Rain = 0
KBO1 150911Z 30009KT M03/M06 A3025 RMK A01 T10251056  RH  079%=      5-min Rain = 0
KBO1 150912Z 30009KT M03/M06 A3025 RMK A01 T10251055  RH  080%=      5-min Rain = 0
KBO1 150913Z 30009KT M03/M06 A3025 RMK A01 T10251056  RH  080%=      5-min Rain = 0
KBO1 150914Z 30009KT M03/M06 A3025 RMK A01 T10251056  RH  080%=      5-min Rain = 0
KBO1 150915Z 30009KT M03/M06 A3025 RMK A01 T10251055  RH  080%=      5-min Rain = 0
KBO1 150916Z 30009KT M03/M06 A3025 RMK A01 T10251055  RH  080%=      5-min Rain = 0
KBO1 150917Z 30009KT M02/M06 A3025 RMK A01 T10241055  RH  079%=      5-min Rain = 0
KBO1 150918Z 30009KT M02/M05 A3025 RMK A01 T10241054  RH  079%=      5-min Rain = 0
KBO1 150919Z 30009KT M02/M05 A3025 RMK A01 T10231054  RH  079%=      5-min Rain = 0
KBO1 150920Z 30009KT M02/M05 A3025 RMK A01 T10221054  RH  079%=      5-min Rain = 0
KBO1 150921Z 30009KT M02/M05 A3025 RMK A01 T10221054  RH  079%=      5-min Rain = 0
KBO1 150922Z 30009KT M02/M05 A3025 RMK A01 T10221054  RH  079%=      5-min Rain = 0
KBO1 150923Z 30009KT M02/M05 A3025 RMK A01 T10221054  RH  079%=      5-min Rain = 0
KBO1 150924Z 30009KT M02/M05 A3025 RMK A01 T10211054  RH  079%=      5-min Rain = 0
KBO1 150925Z 30008KT M02/M05 A3025 RMK A01 T10211054  RH  078%=      5-min Rain = 0
KBO1 150926Z 30009KT M02/M05 A3025 RMK A01 T10221054  RH  078%=      5-min Rain = 0
KBO1 150927Z 30008KT M02/M05 A3025 RMK A01 T10221054  RH  079%=      5-min Rain = 0
KBO1 150928Z 30009KT M02/M05 A3025 RMK A01 T10221054  RH  079%=      5-min Rain = 0
KBO1 150929Z 30009KT M02/M05 A3024 RMK A01 T10221054  RH  079%=      5-min Rain = 0
KBO1 150930Z 30009KT M02/M05 A3024 RMK A01 T10221054  RH  079%=      5-min Rain = 0
KBO1 150931Z 30009KT M02/M05 A3024 RMK A01 T10221054  RH  078%=      5-min Rain = 0
KBO1 150932Z 30009KT M02/M05 A3024 RMK A01 T10221054  RH  078%=      5-min Rain = 0
KBO1 150933Z 31009KT M02/M05 A3024 RMK A01 T10221054  RH  078%=      5-min Rain = 0
KBO1 150934Z 31008KT M02/M05 A3024 RMK A01 T10221054  RH  078%=      5-min Rain = 0
KBO1 150935Z 31008KT M02/M06 A3024 RMK A01 T10221055  RH  078%=      5-min Rain = 0
KBO1 150936Z 31008KT M02/M06 A3024 RMK A01 T10221055  RH  078%=      5-min Rain = 0
KBO1 150937Z 31008KT M02/M06 A3024 RMK A01 T10221055  RH  078%=      5-min Rain = 0
KBO1 150938Z 31008KT M02/M06 A3024 RMK A01 T10231055  RH  078%=      5-min Rain = 0
KBO1 150939Z 31008KT M02/M06 A3024 RMK A01 T10231055  RH  078%=      5-min Rain = 0
KBO1 150940Z 31009KT M02/M06 A3024 RMK A01 T10231055  RH  079%=      5-min Rain = 0
KBO1 150941Z 31008KT M02/M06 A3024 RMK A01 T10231055  RH  079%=      5-min Rain = 0
KBO1 150942Z 30008KT M02/M06 A3024 RMK A01 T10231055  RH  079%=      5-min Rain = 0
KBO1 150943Z 30008KT M02/M06 A3024 RMK A01 T10241055  RH  079%=      5-min Rain = 0
KBO1 150944Z 30008KT M02/M06 A3024 RMK A01 T10241055  RH  079%=      5-min Rain = 0
KBO1 150945Z 31009KT M02/M06 A3024 RMK A01 T10241056  RH  079%=      5-min Rain = 0
KBO1 150946Z 30008KT M02/M06 A3024 RMK A01 T10241055  RH  079%=      5-min Rain = 0
KBO1 150947Z 31008KT M02/M06 A3024 RMK A01 T10241055  RH  079%=      5-min Rain = 0
KBO1 150948Z 31008KT M02/M06 A3024 RMK A01 T10241056  RH  079%=      5-min Rain = 0
KBO1 150949Z 31007KT M03/M06 A3024 RMK A01 T10251056  RH  079%=      5-min Rain = 0
KBO1 150950Z 31008KT M03/M06 A3024 RMK A01 T10251056  RH  079%=      5-min Rain = 0
KBO1 150951Z 31008KT M03/M06 A3024 RMK A01 T10251056  RH  079%=      5-min Rain = 0
KBO1 150952Z 31008KT M03/M06 A3024 RMK A01 T10251056  RH  079%=      5-min Rain = 0
KBO1 150953Z 31008KT M03/M06 A3024 RMK A01 T10251056  RH  079%=      5-min Rain = 0
KBO1 150954Z 31007KT M03/M06 A3024 RMK A01 T10251056  RH  079%=      5-min Rain = 0
KBO1 150955Z 31008KT M03/M06 A3024 RMK A01 T10251057  RH  079%=      5-min Rain = 0
KBO1 150956Z 31008KT M03/M06 A3024 RMK A01 T10251056  RH  079%=      5-min Rain = 0
KBO1 150957Z 31008KT M03/M06 A3024 RMK A01 T10261057  RH  079%=      5-min Rain = 0
KBO1 150958Z 31009KT M03/M06 A3024 RMK A01 T10251056  RH  079%=      5-min Rain = 0
KBO1 150959Z 31009KT M03/M06 A3024 RMK A01 T10261056  RH  079%=      5-min Rain = 0
KBO1 151000Z 31009KT M03/M06 A3024 RMK A01 T10261056  RH  079%=      5-min Rain = 0
KBO1 151001Z 31009KT M03/M06 A3024 RMK A01 T10251056  RH  079%=      5-min Rain = 0
KBO1 151002Z 31008KT M03/M06 A3024 RMK A01 T10261057  RH  079%=      5-min Rain = 0
KBO1 151003Z 31008KT M03/M06 A3024 RMK A01 T10271058  RH  079%=      5-min Rain = 0
KBO1 151004Z 31008KT M03/M06 A3024 RMK A01 T10281058  RH  080%=      5-min Rain = 0
KBO1 151005Z 31009KT M03/M06 A3024 RMK A01 T10271057  RH  080%=      5-min Rain = 0
KBO1 151006Z 31009KT M03/M06 A3024 RMK A01 T10281057  RH  080%=      5-min Rain = 0
KBO1 151007Z 31009KT M03/M06 A3024 RMK A01 T10281058  RH  080%=      5-min Rain = 0
KBO1 151008Z 31009KT M03/M06 A3024 RMK A01 T10281058  RH  080%=      5-min Rain = 0
KBO1 151009Z 31009KT M03/M06 A3024 RMK A01 T10281058  RH  080%=      5-min Rain = 0
KBO1 151010Z 31008KT M03/M06 A3024 RMK A01 T10281058  RH  080%=      5-min Rain = 0
KBO1 151011Z 31009KT M03/M06 A3024 RMK A01 T10281057  RH  080%=      5-min Rain = 0
KBO1 151012Z 31009KT M03/M06 A3024 RMK A01 T10281058  RH  080%=      5-min Rain = 0
KBO1 151013Z 31009KT M03/M06 A3024 RMK A01 T10281057  RH  080%=      5-min Rain = 0
KBO1 151014Z 31008KT M03/M06 A3024 RMK A01 T10281057  RH  081%=      5-min Rain = 0
KBO1 151015Z 31008KT M03/M06 A3024 RMK A01 T10291057  RH  081%=      5-min Rain = 0
KBO1 151016Z 31008KT M03/M06 A3024 RMK A01 T10291058  RH  081%=      5-min Rain = 0
KBO1 151017Z 31008KT M03/M06 A3024 RMK A01 T10291057  RH  081%=      5-min Rain = 0
KBO1 151018Z 31008KT M03/M06 A3023 RMK A01 T10291057  RH  081%=      5-min Rain = 0
KBO1 151019Z 31008KT M03/M06 A3023 RMK A01 T10291057  RH  081%=      5-min Rain = 0
KBO1 151020Z 31008KT M03/M06 A3023 RMK A01 T10291058  RH  081%=      5-min Rain = 0
KBO1 151021Z 31008KT M03/M06 A3023 RMK A01 T10291058  RH  081%=      5-min Rain = 0
KBO1 151022Z 31008KT M03/M06 A3023 RMK A01 T10301058  RH  081%=      5-min Rain = 0
KBO1 151023Z 31008KT M03/M06 A3023 RMK A01 T10301058  RH  081%=      5-min Rain = 0
KBO1 151024Z 31008KT M03/M06 A3023 RMK A01 T10301058  RH  081%=      5-min Rain = 0
KBO1 151025Z 31008KT M03/M06 A3023 RMK A01 T10291057  RH  081%=      5-min Rain = 0
KBO1 151026Z 31008KT M03/M06 A3023 RMK A01 T10301058  RH  081%=      5-min Rain = 0
KBO1 151027Z 31008KT M03/M06 A3023 RMK A01 T10301058  RH  081%=      5-min Rain = 0
KBO1 151028Z 31008KT M03/M06 A3023 RMK A01 T10301058  RH  081%=      5-min Rain = 0
KBO1 151029Z 31008KT M03/M06 A3023 RMK A01 T10301058  RH  081%=      5-min Rain = 0
KBO1 151030Z 31008KT M03/M06 A3023 RMK A01 T10301058  RH  081%=      5-min Rain = 0
KBO1 151031Z 31008KT M03/M06 A3023 RMK A01 T10311059  RH  081%=      5-min Rain = 0
KBO1 151032Z 31008KT M03/M06 A3024 RMK A01 T10311059  RH  081%=      5-min Rain = 0
KBO1 151033Z 31008KT M03/M06 A3023 RMK A01 T10311059  RH  081%=      5-min Rain = 0
KBO1 151034Z 30008KT M03/M06 A3023 RMK A01 T10321060  RH  081%=      5-min Rain = 0
KBO1 151035Z 30008KT M03/M06 A3023 RMK A01 T10321059  RH  081%=      5-min Rain = 0
KBO1 151036Z 31008KT M03/M06 A3023 RMK A01 T10321059  RH  081%=      5-min Rain = 0
KBO1 151037Z 31008KT M03/M06 A3023 RMK A01 T10311059  RH  081%=      5-min Rain = 0
KBO1 151038Z 31008KT M03/M06 A3023 RMK A01 T10311059  RH  081%=      5-min Rain = 0
KBO1 151039Z 31008KT M03/M06 A3023 RMK A01 T10311059  RH  081%=      5-min Rain = 0
KBO1 151040Z 31008KT M03/M06 A3023 RMK A01 T10311059  RH  081%=      5-min Rain = 0
KBO1 151041Z 31008KT M03/M06 A3023 RMK A01 T10311059  RH  081%=      5-min Rain = 0
KBO1 151042Z 31008KT M03/M06 A3023 RMK A01 T10311059  RH  081%=      5-min Rain = 0
KBO1 151043Z 31008KT M03/M06 A3023 RMK A01 T10311059  RH  081%=      5-min Rain = 0
KBO1 151044Z 31008KT M03/M06 A3023 RMK A01 T10311059  RH  081%=      5-min Rain = 0
KBO1 151045Z 31008KT M03/M06 A3024 RMK A01 T10311059  RH  081%=      5-min Rain = 0
KBO1 151046Z 31008KT M03/M06 A3024 RMK A01 T10311059  RH  081%=      5-min Rain = 0
KBO1 151047Z 31008KT M03/M06 A3024 RMK A01 T10311059  RH  081%=      5-min Rain = 0
KBO1 151048Z 31008KT M03/M06 A3024 RMK A01 T10311059  RH  081%=      5-min Rain = 0
KBO1 151049Z 31008KT M03/M06 A3024 RMK A01 T10311059  RH  081%=      5-min Rain = 0
KBO1 151050Z 31008KT M03/M06 A3024 RMK A01 T10311059  RH  081%=      5-min Rain = 0
KBO1 151051Z 31008KT M03/M06 A3024 RMK A01 T10311059  RH  081%=      5-min Rain = 0
KBO1 151052Z 31008KT M03/M06 A3024 RMK A01 T10311059  RH  081%=      5-min Rain = 0
KBO1 151053Z 31008KT M03/M06 A3024 RMK A01 T10311059  RH  081%=      5-min Rain = 0
KBO1 151054Z 31008KT M03/M06 A3024 RMK A01 T10301059  RH  081%=      5-min Rain = 0
KBO1 151055Z 31007KT M03/M06 A3024 RMK A01 T10301059  RH  081%=      5-min Rain = 0
KBO1 151056Z 31007KT M03/M06 A3024 RMK A01 T10301059  RH  081%=      5-min Rain = 0
KBO1 151057Z 31008KT M03/M06 A3024 RMK A01 T10301059  RH  081%=      5-min Rain = 0
KBO1 151058Z 31008KT M03/M06 A3024 RMK A01 T10301059  RH  081%=      5-min Rain = 0
KBO1 151059Z 31008KT M03/M06 A3024 RMK A01 T10301059  RH  081%=      5-min Rain = 0
KBO1 151100Z 31008KT M03/M06 A3024 RMK A01 T10301059  RH  080%=      5-min Rain = 0
KBO1 151101Z 31008KT M03/M06 A3024 RMK A01 T10301059  RH  080%=      5-min Rain = 0
KBO1 151102Z 31008KT M03/M06 A3024 RMK A01 T10301059  RH  080%=      5-min Rain = 0
KBO1 151103Z 31008KT M03/M06 A3024 RMK A01 T10301059  RH  080%=      5-min Rain = 0
KBO1 151104Z 31008KT M03/M06 A3024 RMK A01 T10301059  RH  080%=      5-min Rain = 0
KBO1 151105Z 31008KT M03/M06 A3024 RMK A01 T10301059  RH  080%=      5-min Rain = 0
KBO1 151106Z 31007KT M03/M06 A3024 RMK A01 T10301059  RH  080%=      5-min Rain = 0
KBO1 151107Z 31008KT M03/M06 A3024 RMK A01 T10301059  RH  081%=      5-min Rain = 0
KBO1 151108Z 30008KT M03/M06 A3024 RMK A01 T10311060  RH  081%=      5-min Rain = 0
KBO1 151109Z 30008KT M03/M06 A3024 RMK A01 T10311060  RH  081%=      5-min Rain = 0
KBO1 151110Z 31008KT M03/M06 A3024 RMK A01 T10311060  RH  081%=      5-min Rain = 0
KBO1 151111Z 30008KT M03/M06 A3024 RMK A01 T10311060  RH  081%=      5-min Rain = 0
KBO1 151112Z 31008KT M03/M06 A3024 RMK A01 T10321060  RH  081%=      5-min Rain = 0
KBO1 151113Z 30008KT M03/M06 A3024 RMK A01 T10321060  RH  081%=      5-min Rain = 0
KBO1 151114Z 30008KT M03/M06 A3024 RMK A01 T10321060  RH  081%=      5-min Rain = 0
KBO1 151115Z 30008KT M03/M06 A3024 RMK A01 T10321060  RH  081%=      5-min Rain = 0
KBO1 151116Z 31007KT M03/M06 A3024 RMK A01 T10321060  RH  081%=      5-min Rain = 0
KBO1 151117Z 31007KT M03/M06 A3024 RMK A01 T10331060  RH  081%=      5-min Rain = 0
KBO1 151118Z 31008KT M03/M06 A3024 RMK A01 T10331061  RH  081%=      5-min Rain = 0
KBO1 151119Z 31008KT M03/M06 A3024 RMK A01 T10331061  RH  081%=      5-min Rain = 0
KBO1 151120Z 31008KT M03/M06 A3024 RMK A01 T10331061  RH  081%=      5-min Rain = 0
KBO1 151121Z 31008KT M03/M06 A3024 RMK A01 T10331061  RH  081%=      5-min Rain = 0
KBO1 151122Z 31008KT M03/M06 A3024 RMK A01 T10331061  RH  081%=      5-min Rain = 0
KBO1 151123Z 31009KT M03/M06 A3024 RMK A01 T10331061  RH  081%=      5-min Rain = 0
KBO1 151124Z 31008KT M03/M06 A3024 RMK A01 T10331061  RH  081%=      5-min Rain = 0
KBO1 151125Z 31008KT M03/M06 A3024 RMK A01 T10331061  RH  081%=      5-min Rain = 0
KBO1 151126Z 30008KT M03/M06 A3024 RMK A01 T10331061  RH  081%=      5-min Rain = 0
KBO1 151127Z 31008KT M03/M06 A3024 RMK A01 T10331060  RH  081%=      5-min Rain = 0
KBO1 151128Z 31008KT M03/M06 A3024 RMK A01 T10331061  RH  081%=      5-min Rain = 0
KBO1 151129Z 30008KT M03/M06 A3024 RMK A01 T10331061  RH  081%=      5-min Rain = 0
KBO1 151130Z 31008KT M03/M06 A3024 RMK A01 T10331061  RH  081%=      5-min Rain = 0
KBO1 151131Z 30008KT M03/M06 A3024 RMK A01 T10331061  RH  081%=      5-min Rain = 0
KBO1 151132Z 30008KT M03/M06 A3024 RMK A01 T10331061  RH  081%=      5-min Rain = 0
KBO1 151133Z 30008KT M03/M06 A3024 RMK A01 T10331061  RH  081%=      5-min Rain = 0
KBO1 151134Z 30008KT M03/M06 A3024 RMK A01 T10331061  RH  081%=      5-min Rain = 0
KBO1 151135Z 30008KT M03/M06 A3024 RMK A01 T10331061  RH  081%=      5-min Rain = 0
KBO1 151136Z 30008KT M03/M06 A3024 RMK A01 T10331061  RH  081%=      5-min Rain = 0
KBO1 151137Z 30007KT M03/M06 A3024 RMK A01 T10331061  RH  081%=      5-min Rain = 0
KBO1 151138Z 30008KT M03/M06 A3024 RMK A01 T10331061  RH  081%=      5-min Rain = 0
KBO1 151139Z 31008KT M03/M06 A3024 RMK A01 T10321060  RH  081%=      5-min Rain = 0
KBO1 151140Z 30008KT M03/M06 A3024 RMK A01 T10321060  RH  081%=      5-min Rain = 0
KBO1 151141Z 30008KT M03/M06 A3024 RMK A01 T10311060  RH  080%=      5-min Rain = 0
KBO1 151142Z 30008KT M03/M06 A3024 RMK A01 T10321061  RH  080%=      5-min Rain = 0
KBO1 151143Z 30008KT M03/M06 A3024 RMK A01 T10311061  RH  080%=      5-min Rain = 0
KBO1 151144Z 30008KT M03/M06 A3024 RMK A01 T10321061  RH  080%=      5-min Rain = 0
KBO1 151145Z 30008KT M03/M06 A3025 RMK A01 T10321061  RH  081%=      5-min Rain = 0
KBO1 151146Z 30007KT M03/M06 A3024 RMK A01 T10321061  RH  081%=      5-min Rain = 0
KBO1 151147Z 30007KT M03/M06 A3024 RMK A01 T10321061  RH  081%=      5-min Rain = 0
KBO1 151148Z 30007KT M03/M06 A3024 RMK A01 T10331061  RH  081%=      5-min Rain = 0
KBO1 151149Z 30007KT M03/M06 A3024 RMK A01 T10331062  RH  081%=      5-min Rain = 0
KBO1 151150Z 30007KT M03/M06 A3024 RMK A01 T10341062  RH  081%=      5-min Rain = 0
KBO1 151151Z 30007KT M03/M06 A3025 RMK A01 T10341062  RH  081%=      5-min Rain = 0
KBO1 151152Z 30007KT M03/M06 A3025 RMK A01 T10341063  RH  081%=      5-min Rain = 0
KBO1 151153Z 30007KT M03/M06 A3025 RMK A01 T10341063  RH  081%=      5-min Rain = 0
KBO1 151154Z 30007KT M04/M06 A3025 RMK A01 T10351063  RH  081%=      5-min Rain = 0
KBO1 151155Z 30007KT M04/M06 A3025 RMK A01 T10351063  RH  081%=      5-min Rain = 0
KBO1 151156Z 30008KT M04/M06 A3025 RMK A01 T10351063  RH  081%=      5-min Rain = 0
KBO1 151157Z 30008KT M04/M06 A3025 RMK A01 T10351063  RH  081%=      5-min Rain = 0
KBO1 151158Z 30008KT M04/M06 A3025 RMK A01 T10361063  RH  081%=      5-min Rain = 0
KBO1 151159Z 30008KT M04/M06 A3025 RMK A01 T10361063  RH  081%=      5-min Rain = 0
KBO1 151200Z 30007KT M04/M06 A3025 RMK A01 T10361063  RH  081%=      5-min Rain = 0
KBO1 151201Z 30007KT M04/M06 A3025 RMK A01 T10361063  RH  082%=      5-min Rain = 0
KBO1 151202Z 30008KT M04/M06 A3025 RMK A01 T10371063  RH  082%=      5-min Rain = 0
KBO1 151203Z 30008KT M04/M06 A3025 RMK A01 T10371064  RH  082%=      5-min Rain = 0
KBO1 151204Z 30008KT M04/M06 A3024 RMK A01 T10371064  RH  082%=      5-min Rain = 0
KBO1 151205Z 30009KT M04/M06 A3024 RMK A01 T10371064  RH  082%=      5-min Rain = 0
KBO1 151206Z 30008KT M04/M06 A3024 RMK A01 T10371064  RH  082%=      5-min Rain = 0
KBO1 151207Z 30008KT M04/M06 A3024 RMK A01 T10371064  RH  081%=      5-min Rain = 0
KBO1 151208Z 30008KT M04/M06 A3024 RMK A01 T10371064  RH  081%=      5-min Rain = 0
KBO1 151209Z 30008KT M04/M07 A3024 RMK A01 T10381065  RH  082%=      5-min Rain = 0
KBO1 151210Z 30008KT M04/M07 A3024 RMK A01 T10381065  RH  081%=      5-min Rain = 0
KBO1 151211Z 30009KT M04/M07 A3024 RMK A01 T10381065  RH  081%=      5-min Rain = 0
KBO1 151212Z 30009KT M04/M07 A3024 RMK A01 T10381065  RH  082%=      5-min Rain = 0
KBO1 151213Z 30009KT M04/M07 A3024 RMK A01 T10381065  RH  082%=      5-min Rain = 0
KBO1 151214Z 30009KT M04/M07 A3024 RMK A01 T10381065  RH  082%=      5-min Rain = 0
KBO1 151215Z 30009KT M04/M07 A3024 RMK A01 T10381065  RH  082%=      5-min Rain = 0
KBO1 151216Z 30009KT M04/M07 A3024 RMK A01 T10381065  RH  082%=      5-min Rain = 0
KBO1 151217Z 30009KT M04/M07 A3024 RMK A01 T10381065  RH  082%=      5-min Rain = 0
KBO1 151218Z 30009KT M04/M07 A3024 RMK A01 T10381065  RH  081%=      5-min Rain = 0
KBO1 151219Z 30009KT M04/M07 A3025 RMK A01 T10381065  RH  081%=      5-min Rain = 0
KBO1 151220Z 30009KT M04/M07 A3025 RMK A01 T10381065  RH  081%=      5-min Rain = 0
KBO1 151221Z 30009KT M04/M07 A3025 RMK A01 T10371065  RH  081%=      5-min Rain = 0
KBO1 151222Z 30009KT M04/M07 A3025 RMK A01 T10371065  RH  081%=      5-min Rain = 0
KBO1 151223Z 30008KT M04/M07 A3025 RMK A01 T10371065  RH  081%=      5-min Rain = 0
KBO1 151224Z 30008KT M04/M07 A3025 RMK A01 T10371065  RH  081%=      5-min Rain = 0
KBO1 151225Z 30008KT M04/M07 A3025 RMK A01 T10371065  RH  081%=      5-min Rain = 0
KBO1 151226Z 30008KT M04/M07 A3025 RMK A01 T10371065  RH  081%=      5-min Rain = 0
KBO1 151227Z 30008KT M04/M07 A3025 RMK A01 T10371065  RH  081%=      5-min Rain = 0
KBO1 151228Z 30009KT M04/M07 A3025 RMK A01 T10371065  RH  081%=      5-min Rain = 0
KBO1 151229Z 30009KT M04/M07 A3025 RMK A01 T10381065  RH  081%=      5-min Rain = 0
KBO1 151230Z 30008KT M04/M07 A3025 RMK A01 T10371065  RH  081%=      5-min Rain = 0
KBO1 151231Z 30009KT M04/M07 A3025 RMK A01 T10371065  RH  081%=      5-min Rain = 0
KBO1 151232Z 31009KT M04/M06 A3025 RMK A01 T10361064  RH  081%=      5-min Rain = 0
KBO1 151233Z 30008KT M04/M06 A3024 RMK A01 T10351064  RH  081%=      5-min Rain = 0
KBO1 151234Z 30009KT M03/M06 A3024 RMK A01 T10341063  RH  080%=      5-min Rain = 0
KBO1 151235Z 30009KT M03/M06 A3024 RMK A01 T10341063  RH  080%=      5-min Rain = 0
KBO1 151236Z 30010KT M03/M06 A3024 RMK A01 T10331063  RH  080%=      5-min Rain = 0
KBO1 151237Z 30009KT M03/M06 A3024 RMK A01 T10341064  RH  080%=      5-min Rain = 0
KBO1 151238Z 30009KT M03/M06 A3024 RMK A01 T10341064  RH  080%=      5-min Rain = 0
KBO1 151239Z 30009KT M03/M06 A3024 RMK A01 T10331064  RH  079%=      5-min Rain = 0
KBO1 151240Z 30009KT M03/M06 A3024 RMK A01 T10331064  RH  079%=      5-min Rain = 0
KBO1 151241Z 30009KT M03/M06 A3024 RMK A01 T10331064  RH  079%=      5-min Rain = 0
KBO1 151242Z 30009KT M03/M06 A3024 RMK A01 T10331064  RH  079%=      5-min Rain = 0
KBO1 151243Z 30009KT M03/M06 A3024 RMK A01 T10321063  RH  079%=      5-min Rain = 0
KBO1 151244Z 30009KT M03/M06 A3024 RMK A01 T10321063  RH  079%=      5-min Rain = 0
KBO1 151245Z 30008KT M03/M06 A3024 RMK A01 T10321063  RH  079%=      5-min Rain = 0
KBO1 151246Z 30008KT M03/M06 A3024 RMK A01 T10311063  RH  079%=      5-min Rain = 0
KBO1 151247Z 30008KT M03/M06 A3024 RMK A01 T10311063  RH  079%=      5-min Rain = 0
KBO1 151248Z 30008KT M03/M06 A3024 RMK A01 T10321063  RH  079%=      5-min Rain = 0
KBO1 151249Z 30008KT M03/M06 A3024 RMK A01 T10321064  RH  079%=      5-min Rain = 0
KBO1 151250Z 30008KT M03/M07 A3024 RMK A01 T10331065  RH  079%=      5-min Rain = 0
KBO1 151251Z 30008KT M03/M07 A3024 RMK A01 T10341065  RH  079%=      5-min Rain = 0
KBO1 151252Z 30008KT M04/M07 A3024 RMK A01 T10351065  RH  079%=      5-min Rain = 0
KBO1 151253Z 30008KT M04/M07 A3025 RMK A01 T10351065  RH  080%=      5-min Rain = 0
KBO1 151254Z 31008KT M04/M07 A3025 RMK A01 T10351065  RH  080%=      5-min Rain = 0
KBO1 151255Z 30008KT M04/M07 A3025 RMK A01 T10351065  RH  080%=      5-min Rain = 0
KBO1 151256Z 30008KT M04/M07 A3025 RMK A01 T10351065  RH  080%=      5-min Rain = 0
KBO1 151257Z 30008KT M04/M07 A3025 RMK A01 T10351065  RH  079%=      5-min Rain = 0
KBO1 151258Z 31007KT M03/M07 A3025 RMK A01 T10341065  RH  079%=      5-min Rain = 0
KBO1 151259Z 31007KT M03/M07 A3025 RMK A01 T10341065  RH  079%=      5-min Rain = 0
KBO1 151300Z 31008KT M03/M06 A3025 RMK A01 T10331064  RH  079%=      5-min Rain = 0
KBO1 151301Z 30008KT M03/M06 A3025 RMK A01 T10321063  RH  079%=      5-min Rain = 0
KBO1 151302Z 30008KT M03/M06 A3025 RMK A01 T10321063  RH  079%=      5-min Rain = 0
KBO1 151303Z 30008KT M03/M06 A3025 RMK A01 T10311063  RH  079%=      5-min Rain = 0
KBO1 151304Z 30008KT M03/M06 A3025 RMK A01 T10301063  RH  078%=      5-min Rain = 0
KBO1 151305Z 30008KT M03/M06 A3025 RMK A01 T10311064  RH  078%=      5-min Rain = 0
KBO1 151306Z 30008KT M03/M06 A3025 RMK A01 T10311064  RH  078%=      5-min Rain = 0
KBO1 151307Z 30008KT M03/M07 A3025 RMK A01 T10321065  RH  078%=      5-min Rain = 0
KBO1 151308Z 30008KT M03/M07 A3025 RMK A01 T10331065  RH  078%=      5-min Rain = 0
KBO1 151309Z 30008KT M03/M07 A3025 RMK A01 T10341066  RH  078%=      5-min Rain = 0
KBO1 151310Z 30008KT M04/M07 A3025 RMK A01 T10351066  RH  079%=      5-min Rain = 0
KBO1 151311Z 30008KT M04/M07 A3025 RMK A01 T10361067  RH  079%=      5-min Rain = 0
KBO1 151312Z 30008KT M04/M07 A3025 RMK A01 T10361067  RH  079%=      5-min Rain = 0
KBO1 151313Z 30009KT M04/M07 A3025 RMK A01 T10371067  RH  079%=      5-min Rain = 0
KBO1 151314Z 30009KT M04/M07 A3025 RMK A01 T10371067  RH  080%=      5-min Rain = 0
KBO1 151315Z 30009KT M04/M07 A3025 RMK A01 T10371067  RH  080%=      5-min Rain = 0
KBO1 151316Z 30009KT M04/M07 A3025 RMK A01 T10381068  RH  080%=      5-min Rain = 0
KBO1 151317Z 30009KT M04/M07 A3025 RMK A01 T10381068  RH  080%=      5-min Rain = 0
KBO1 151318Z 30009KT M04/M07 A3025 RMK A01 T10381067  RH  080%=      5-min Rain = 0
KBO1 151319Z 30009KT M04/M07 A3025 RMK A01 T10381067  RH  080%=      5-min Rain = 0
KBO1 151320Z 30008KT M04/M07 A3025 RMK A01 T10381067  RH  080%=      5-min Rain = 0
KBO1 151321Z 30007KT M04/M07 A3025 RMK A01 T10381067  RH  080%=      5-min Rain = 0
KBO1 151322Z 31005KT M04/M07 A3025 RMK A01 T10381068  RH  080%=      5-min Rain = 0
KBO1 151323Z 31006KT M04/M07 A3025 RMK A01 T10391069  RH  080%=      5-min Rain = 0
KBO1 151324Z 30007KT M04/M07 A3025 RMK A01 T10401069  RH  080%=      5-min Rain = 0
KBO1 151325Z 30008KT M04/M07 A3025 RMK A01 T10401069  RH  080%=      5-min Rain = 0
KBO1 151326Z 30008KT M04/M07 A3025 RMK A01 T10411069  RH  080%=      5-min Rain = 0
KBO1 151327Z 30009KT M04/M07 A3025 RMK A01 T10411069  RH  081%=      5-min Rain = 0
KBO1 151328Z 30009KT M04/M07 A3025 RMK A01 T10411069  RH  081%=      5-min Rain = 0
KBO1 151329Z 30008KT M04/M07 A3025 RMK A01 T10411068  RH  081%=      5-min Rain = 0
KBO1 151330Z 30008KT M04/M07 A3025 RMK A01 T10391067  RH  081%=      5-min Rain = 0
KBO1 151331Z 30008KT M04/M07 A3025 RMK A01 T10391068  RH  081%=      5-min Rain = 0
KBO1 151332Z 30008KT M04/M07 A3025 RMK A01 T10391068  RH  080%=      5-min Rain = 0
KBO1 151333Z 30008KT M04/M07 A3026 RMK A01 T10391068  RH  080%=      5-min Rain = 0
KBO1 151334Z 30008KT M04/M07 A3026 RMK A01 T10401069  RH  080%=      5-min Rain = 0
KBO1 151335Z 30008KT M04/M07 A3026 RMK A01 T10411069  RH  080%=      5-min Rain = 0
KBO1 151336Z 30008KT M04/M07 A3026 RMK A01 T10411070  RH  081%=      5-min Rain = 0
KBO1 151337Z 30008KT M04/M07 A3026 RMK A01 T10411069  RH  081%=      5-min Rain = 0
KBO1 151338Z 30008KT M04/M07 A3026 RMK A01 T10421069  RH  081%=      5-min Rain = 0
KBO1 151339Z 30009KT M04/M07 A3026 RMK A01 T10411068  RH  081%=      5-min Rain = 0
KBO1 151340Z 30009KT M04/M07 A3026 RMK A01 T10411068  RH  081%=      5-min Rain = 0
KBO1 151341Z 30009KT M04/M07 A3026 RMK A01 T10411068  RH  081%=      5-min Rain = 0
KBO1 151342Z 30009KT M04/M07 A3026 RMK A01 T10411068  RH  081%=      5-min Rain = 0
KBO1 151343Z 30009KT M04/M07 A3026 RMK A01 T10411069  RH  081%=      5-min Rain = 0
KBO1 151344Z 30009KT M04/M07 A3026 RMK A01 T10411069  RH  081%=      5-min Rain = 0
KBO1 151345Z 30009KT M04/M07 A3026 RMK A01 T10411068  RH  081%=      5-min Rain = 0
KBO1 151346Z 30009KT M04/M07 A3026 RMK A01 T10411068  RH  081%=      5-min Rain = 0
KBO1 151347Z 30009KT M04/M07 A3026 RMK A01 T10401068  RH  081%=      5-min Rain = 0
KBO1 151348Z 30009KT M04/M07 A3026 RMK A01 T10401068  RH  081%=      5-min Rain = 0
KBO1 151349Z 30009KT M04/M07 A3026 RMK A01 T10401068  RH  081%=      5-min Rain = 0
KBO1 151350Z 30009KT M04/M07 A3026 RMK A01 T10401068  RH  081%=      5-min Rain = 0
KBO1 151351Z 30009KT M04/M07 A3026 RMK A01 T10391068  RH  081%=      5-min Rain = 0
KBO1 151352Z 30009KT M04/M07 A3026 RMK A01 T10391067  RH  081%=      5-min Rain = 0
KBO1 151353Z 30009KT M04/M07 A3026 RMK A01 T10391067  RH  081%=      5-min Rain = 0
KBO1 151354Z 30009KT M04/M07 A3026 RMK A01 T10391067  RH  081%=      5-min Rain = 0
KBO1 151355Z 30009KT M04/M07 A3026 RMK A01 T10381066  RH  081%=      5-min Rain = 0
KBO1 151356Z 30009KT M04/M07 A3026 RMK A01 T10381066  RH  080%=      5-min Rain = 0
KBO1 151357Z 30009KT M04/M07 A3026 RMK A01 T10371066  RH  080%=      5-min Rain = 0
KBO1 151358Z 30009KT M04/M07 A3026 RMK A01 T10371066  RH  080%=      5-min Rain = 0
KBO1 151359Z 30009KT M04/M07 A3026 RMK A01 T10361065  RH  080%=      5-min Rain = 0
KBO1 151400Z 30009KT M04/M07 A3026 RMK A01 T10361065  RH  080%=      5-min Rain = 0
KBO1 151401Z 30009KT M04/M06 A3026 RMK A01 T10351064  RH  080%=      5-min Rain = 0
KBO1 151402Z 30009KT M03/M06 A3026 RMK A01 T10341064  RH  080%=      5-min Rain = 0
KBO1 151403Z 30008KT M03/M06 A3026 RMK A01 T10331063  RH  080%=      5-min Rain = 0
KBO1 151404Z 30008KT M03/M06 A3026 RMK A01 T10331063  RH  080%=      5-min Rain = 0
KBO1 151405Z 30008KT M03/M06 A3026 RMK A01 T10321062  RH  079%=      5-min Rain = 0
KBO1 151406Z 30008KT M03/M06 A3026 RMK A01 T10311062  RH  079%=      5-min Rain = 0
KBO1 151407Z 30008KT M03/M06 A3026 RMK A01 T10311062  RH  079%=      5-min Rain = 0
KBO1 151408Z 30008KT M03/M06 A3026 RMK A01 T10301062  RH  079%=      5-min Rain = 0
KBO1 151409Z 30008KT M03/M06 A3026 RMK A01 T10301062  RH  079%=      5-min Rain = 0
KBO1 151410Z 30008KT M03/M06 A3026 RMK A01 T10291061  RH  079%=      5-min Rain = 0
KBO1 151411Z 30008KT M03/M06 A3027 RMK A01 T10281060  RH  079%=      5-min Rain = 0
KBO1 151412Z 30008KT M03/M06 A3027 RMK A01 T10261059  RH  078%=      5-min Rain = 0
KBO1 151413Z 30008KT M03/M06 A3027 RMK A01 T10251058  RH  078%=      5-min Rain = 0
KBO1 151414Z 30008KT M02/M06 A3027 RMK A01 T10241057  RH  078%=      5-min Rain = 0
KBO1 151415Z 30008KT M02/M06 A3027 RMK A01 T10231057  RH  078%=      5-min Rain = 0
KBO1 151416Z 30008KT M02/M06 A3027 RMK A01 T10221057  RH  077%=      5-min Rain = 0
KBO1 151417Z 30008KT M02/M06 A3027 RMK A01 T10211056  RH  077%=      5-min Rain = 0
KBO1 151418Z 30008KT M02/M06 A3027 RMK A01 T10211056  RH  077%=      5-min Rain = 0
KBO1 151419Z 30007KT M02/M06 A3027 RMK A01 T10201056  RH  077%=      5-min Rain = 0
KBO1 151420Z 30007KT M02/M06 A3027 RMK A01 T10191055  RH  077%=      5-min Rain = 0
KBO1 151421Z 30007KT M02/M05 A3027 RMK A01 T10181054  RH  077%=      5-min Rain = 0
KBO1 151422Z 30008KT M02/M05 A3027 RMK A01 T10171053  RH  076%=      5-min Rain = 0
KBO1 151423Z 30007KT M02/M05 A3027 RMK A01 T10161052  RH  076%=      5-min Rain = 0
KBO1 151424Z 30007KT M02/M05 A3027 RMK A01 T10151052  RH  076%=      5-min Rain = 0
KBO1 151425Z 30007KT M01/M05 A3027 RMK A01 T10141051  RH  076%=      5-min Rain = 0
KBO1 151426Z 30008KT M01/M05 A3027 RMK A01 T10131050  RH  076%=      5-min Rain = 0
KBO1 151427Z 30007KT M01/M05 A3027 RMK A01 T10121050  RH  075%=      5-min Rain = 0
KBO1 151428Z 30007KT M01/M05 A3027 RMK A01 T10101049  RH  075%=      5-min Rain = 0
KBO1 151429Z 30007KT M01/M05 A3027 RMK A01 T10091047  RH  075%=      5-min Rain = 0
KBO1 151430Z 30007KT M01/M05 A3027 RMK A01 T10071047  RH  075%=      5-min Rain = 0
KBO1 151431Z 30007KT M01/M05 A3027 RMK A01 T10061046  RH  074%=      5-min Rain = 0
KBO1 151432Z 30007KT M01/M05 A3027 RMK A01 T10061046  RH  074%=      5-min Rain = 0
KBO1 151433Z 30007KT M01/M05 A3027 RMK A01 T10051045  RH  074%=      5-min Rain = 0
KBO1 151434Z 30007KT M00/M05 A3027 RMK A01 T10041045  RH  074%=      5-min Rain = 0
KBO1 151435Z 30007KT M00/M05 A3027 RMK A01 T10031045  RH  073%=      5-min Rain = 0
KBO1 151436Z 30007KT M00/M05 A3027 RMK A01 T10021045  RH  073%=      5-min Rain = 0
KBO1 151437Z 30007KT M00/M04 A3027 RMK A01 T10011044  RH  073%=      5-min Rain = 0
KBO1 151438Z 30006KT 00/04 A3027 RMK A01 T00000-44  RH  072%=      5-min Rain = 0
KBO1 151439Z 30006KT 00/M04 A3027 RMK A01 T00021042  RH  072%=      5-min Rain = 0
KBO1 151440Z 30008KT 00/M04 A3027 RMK A01 T00021042  RH  072%=      5-min Rain = 0
KBO1 151441Z 30007KT 00/M04 A3027 RMK A01 T00031042  RH  072%=      5-min Rain = 0
KBO1 151442Z 30007KT 00/M04 A3028 RMK A01 T00041042  RH  071%=      5-min Rain = 0
KBO1 151443Z 30006KT 01/M04 A3028 RMK A01 T00051041  RH  071%=      5-min Rain = 0
KBO1 151444Z 30007KT 01/M04 A3028 RMK A01 T00061041  RH  071%=      5-min Rain = 0
KBO1 151445Z 30007KT 01/M04 A3028 RMK A01 T00071041  RH  070%=      5-min Rain = 0
KBO1 151446Z 30006KT 01/M04 A3028 RMK A01 T00071040  RH  070%=      5-min Rain = 0
KBO1 151447Z 30005KT 01/M04 A3028 RMK A01 T00091041  RH  070%=      5-min Rain = 0
KBO1 151448Z 30005KT 01/M04 A3028 RMK A01 T00091039  RH  070%=      5-min Rain = 0
KBO1 151449Z 30006KT 01/M04 A3028 RMK A01 T00111038  RH  070%=      5-min Rain = 0
KBO1 151450Z 30006KT 01/M04 A3028 RMK A01 T00121038  RH  069%=      5-min Rain = 0
KBO1 151451Z 30007KT 01/M04 A3028 RMK A01 T00121040  RH  068%=      5-min Rain = 0
KBO1 151452Z 30006KT 01/M04 A3028 RMK A01 T00131041  RH  067%=      5-min Rain = 0
KBO1 151453Z 30006KT 01/M04 A3028 RMK A01 T00141040  RH  067%=      5-min Rain = 0
KBO1 151454Z 30006KT 02/M04 A3028 RMK A01 T00151038  RH  068%=      5-min Rain = 0
KBO1 151455Z 30006KT 02/M04 A3028 RMK A01 T00161038  RH  067%=      5-min Rain = 0
KBO1 151456Z 30006KT 02/M04 A3028 RMK A01 T00161040  RH  066%=      5-min Rain = 0
KBO1 151457Z 30006KT 02/M04 A3028 RMK A01 T00171039  RH  066%=      5-min Rain = 0
KBO1 151458Z 29006KT 02/M04 A3028 RMK A01 T00171039  RH  066%=      5-min Rain = 0
KBO1 151459Z 30005KT 02/M04 A3028 RMK A01 T00181037  RH  067%=      5-min Rain = 0
KBO1 151500Z 30005KT 02/M04 A3028 RMK A01 T00191038  RH  066%=      5-min Rain = 0
KBO1 151501Z 30007KT 02/M04 A3028 RMK A01 T00201037  RH  066%=      5-min Rain = 0
KBO1 151502Z 30006KT 02/M04 A3028 RMK A01 T00201040  RH  064%=      5-min Rain = 0
KBO1 151503Z 30006KT 02/M04 A3028 RMK A01 T00201040  RH  065%=      5-min Rain = 0
KBO1 151504Z 30006KT 02/M04 A3028 RMK A01 T00211040  RH  064%=      5-min Rain = 0
KBO1 151505Z 30006KT 02/M04 A3028 RMK A01 T00221040  RH  064%=      5-min Rain = 0
KBO1 151506Z 30007KT 02/M04 A3028 RMK A01 T00221039  RH  064%=      5-min Rain = 0
KBO1 151507Z 30007KT 02/M04 A3028 RMK A01 T00221040  RH  064%=      5-min Rain = 0
KBO1 151508Z 30008KT 02/M04 A3028 RMK A01 T00231043  RH  062%=      5-min Rain = 0
KBO1 151509Z 30008KT 02/M05 A3028 RMK A01 T00231045  RH  061%=      5-min Rain = 0
KBO1 151510Z 30006KT 02/M04 A3028 RMK A01 T00231044  RH  061%=      5-min Rain = 0
KBO1 151511Z 30007KT 02/M04 A3028 RMK A01 T00231042  RH  062%=      5-min Rain = 0
KBO1 151512Z 31007KT 02/M04 A3028 RMK A01 T00241043  RH  061%=      5-min Rain = 0
KBO1 151513Z 30006KT 02/M04 A3028 RMK A01 T00241044  RH  061%=      5-min Rain = 0
KBO1 151514Z 29006KT 03/M04 A3028 RMK A01 T00251041  RH  062%=      5-min Rain = 0
KBO1 151515Z 29007KT 03/M04 A3028 RMK A01 T00261040  RH  062%=      5-min Rain = 0
KBO1 151516Z 30007KT 03/M04 A3028 RMK A01 T00261043  RH  060%=      5-min Rain = 0
KBO1 151517Z 30007KT 03/M05 A3028 RMK A01 T00261045  RH  059%=      5-min Rain = 0
KBO1 151518Z 30006KT 03/M04 A3028 RMK A01 T00261043  RH  060%=      5-min Rain = 0
KBO1 151519Z 29006KT 03/M04 A3028 RMK A01 T00281039  RH  062%=      5-min Rain = 0
KBO1 151520Z 29005KT 03/M04 A3028 RMK A01 T00291039  RH  061%=      5-min Rain = 0
KBO1 151521Z 30007KT 03/M04 A3028 RMK A01 T00301039  RH  061%=      5-min Rain = 0
KBO1 151522Z 29007KT 03/M04 A3028 RMK A01 T00301041  RH  060%=      5-min Rain = 0
KBO1 151523Z 30007KT 03/M04 A3028 RMK A01 T00301042  RH  059%=      5-min Rain = 0
KBO1 151524Z 29006KT 03/M04 A3028 RMK A01 T00301044  RH  059%=      5-min Rain = 0
KBO1 151525Z 29006KT 03/M04 A3028 RMK A01 T00301041  RH  059%=      5-min Rain = 0
KBO1 151526Z 29006KT 03/M04 A3028 RMK A01 T00311040  RH  060%=      5-min Rain = 0
KBO1 151527Z 30005KT 03/M04 A3028 RMK A01 T00321039  RH  060%=      5-min Rain = 0
KBO1 151528Z 30006KT 03/M04 A3028 RMK A01 T00331039  RH  059%=      5-min Rain = 0
KBO1 151529Z 30006KT 03/M04 A3028 RMK A01 T00341042  RH  057%=      5-min Rain = 0
KBO1 151530Z 30006KT 03/M04 A3028 RMK A01 T00341044  RH  057%=      5-min Rain = 0
KBO1 151531Z 29006KT 03/M04 A3029 RMK A01 T00341041  RH  058%=      5-min Rain = 0
KBO1 151532Z 31005KT 04/M04 A3029 RMK A01 T00351039  RH  059%=      5-min Rain = 0
KBO1 151533Z 31006KT 04/M04 A3029 RMK A01 T00361041  RH  057%=      5-min Rain = 0
KBO1 151534Z 31005KT 04/M04 A3029 RMK A01 T00371042  RH  056%=      5-min Rain = 0
KBO1 151535Z 31006KT 04/M04 A3029 RMK A01 T00371040  RH  057%=      5-min Rain = 0
KBO1 151536Z 31006KT 04/M04 A3029 RMK A01 T00381043  RH  055%=      5-min Rain = 0
KBO1 151537Z 30006KT 04/M05 A3029 RMK A01 T00371045  RH  055%=      5-min Rain = 0
KBO1 151538Z 30006KT 04/M05 A3029 RMK A01 T00371049  RH  054%=      5-min Rain = 0
KBO1 151539Z 31005KT 04/M05 A3029 RMK A01 T00371050  RH  053%=      5-min Rain = 0
KBO1 151540Z 30004KT 04/M05 A3029 RMK A01 T00371047  RH  054%=      5-min Rain = 0
KBO1 151541Z 31006KT 04/M04 A3029 RMK A01 T00381043  RH  056%=      5-min Rain = 0
KBO1 151542Z 32006KT 04/M04 A3029 RMK A01 T00391043  RH  055%=      5-min Rain = 0
KBO1 151543Z 31004KT 04/M05 A3029 RMK A01 T00401046  RH  053%=      5-min Rain = 0
KBO1 151544Z 31004KT 04/M05 A3029 RMK A01 T00401045  RH  054%=      5-min Rain = 0
KBO1 151545Z 32005KT 04/M04 A3029 RMK A01 T00421042  RH  054%=      5-min Rain = 0
KBO1 151546Z 31006KT 04/M04 A3029 RMK A01 T00421044  RH  053%=      5-min Rain = 0
KBO1 151547Z 32004KT 04/M05 A3029 RMK A01 T00431048  RH  052%=      5-min Rain = 0
KBO1 151548Z 31005KT 04/M05 A3029 RMK A01 T00431047  RH  052%=      5-min Rain = 0
KBO1 151549Z 30004KT 04/M05 A3029 RMK A01 T00431046  RH  052%=      5-min Rain = 0
KBO1 151550Z 30005KT 04/M04 A3029 RMK A01 T00431043  RH  053%=      5-min Rain = 0
KBO1 151551Z 31005KT 05/M04 A3029 RMK A01 T00451042  RH  053%=      5-min Rain = 0
KBO1 151552Z 30005KT 05/M05 A3029 RMK A01 T00461046  RH  051%=      5-min Rain = 0
KBO1 151553Z 31004KT 05/M05 A3029 RMK A01 T00451049  RH  050%=      5-min Rain = 0
KBO1 151554Z 31005KT 05/M05 A3029 RMK A01 T00451045  RH  052%=      5-min Rain = 0
KBO1 151555Z 30003KT 05/M05 A3029 RMK A01 T00461046  RH  051%=      5-min Rain = 0
KBO1 151556Z 30005KT 05/M05 A3029 RMK A01 T00471045  RH  051%=      5-min Rain = 0
KBO1 151557Z 30005KT 05/M04 A3029 RMK A01 T00471043  RH  052%=      5-min Rain = 0
KBO1 151558Z 31005KT 05/M05 A3029 RMK A01 T00481048  RH  050%=      5-min Rain = 0
KBO1 151559Z 30005KT 05/M05 A3029 RMK A01 T00471046  RH  051%=      5-min Rain = 0
KBO1 151600Z 30003KT 05/M05 A3029 RMK A01 T00471051  RH  049%=      5-min Rain = 0
KBO1 151601Z 30004KT 05/M05 A3029 RMK A01 T00461052  RH  049%=      5-min Rain = 0
KBO1 151602Z 30005KT 05/M05 A3029 RMK A01 T00471049  RH  050%=      5-min Rain = 0
KBO1 151603Z 31004KT 05/M05 A3029 RMK A01 T00481050  RH  049%=      5-min Rain = 0
KBO1 151604Z 32004KT 05/M05 A3029 RMK A01 T00491050  RH  049%=      5-min Rain = 0
KBO1 151605Z 31005KT 05/M05 A3029 RMK A01 T00491051  RH  049%=      5-min Rain = 0
KBO1 151606Z 32004KT 05/M05 A3029 RMK A01 T00501049  RH  049%=      5-min Rain = 0
KBO1 151607Z 31003KT 05/M05 A3029 RMK A01 T00511051  RH  048%=      5-min Rain = 0
KBO1 151608Z 31004KT 05/M05 A3029 RMK A01 T00511051  RH  048%=      5-min Rain = 0
KBO1 151609Z 33005KT 05/M05 A3029 RMK A01 T00511050  RH  048%=      5-min Rain = 0
KBO1 151610Z 32005KT 05/M05 A3029 RMK A01 T00511049  RH  048%=      5-min Rain = 0
KBO1 151611Z 32004KT 05/M05 A3029 RMK A01 T00521047  RH  049%=      5-min Rain = 0
KBO1 151612Z 33004KT 05/M05 A3029 RMK A01 T00541045  RH  049%=      5-min Rain = 0
KBO1 151613Z 32003KT 06/M05 A3029 RMK A01 T00551048  RH  047%=      5-min Rain = 0
KBO1 151614Z 31003KT 05/M05 A3029 RMK A01 T00541049  RH  047%=      5-min Rain = 0
KBO1 151615Z 32005KT 06/M05 A3029 RMK A01 T00551045  RH  048%=      5-min Rain = 0
KBO1 151616Z 33005KT 06/M05 A3029 RMK A01 T00571045  RH  048%=      5-min Rain = 0
KBO1 151617Z 32004KT 06/M05 A3029 RMK A01 T00581049  RH  046%=      5-min Rain = 0
KBO1 151618Z 32003KT 06/M05 A3029 RMK A01 T00571054  RH  045%=      5-min Rain = 0
KBO1 151619Z 33003KT 06/M05 A3029 RMK A01 T00561052  RH  046%=      5-min Rain = 0
KBO1 151620Z 33003KT 06/M05 A3029 RMK A01 T00561051  RH  046%=      5-min Rain = 0
KBO1 151621Z 32004KT 06/M05 A3029 RMK A01 T00561053  RH  045%=      5-min Rain = 0
KBO1 151622Z 31004KT 06/M05 A3029 RMK A01 T00551052  RH  046%=      5-min Rain = 0
KBO1 151623Z 28004KT 06/M05 A3029 RMK A01 T00551051  RH  047%=      5-min Rain = 0
KBO1 151624Z 29003KT 06/M05 A3029 RMK A01 T00561047  RH  048%=      5-min Rain = 0
KBO1 151625Z 31005KT 06/M05 A3029 RMK A01 T00571048  RH  047%=      5-min Rain = 0
KBO1 151626Z 31005KT 06/M05 A3029 RMK A01 T00581049  RH  046%=      5-min Rain = 0
KBO1 151627Z 31005KT 06/M05 A3029 RMK A01 T00581052  RH  045%=      5-min Rain = 0
KBO1 151628Z 31004KT 06/M05 A3029 RMK A01 T00581050  RH  046%=      5-min Rain = 0
KBO1 151629Z 32006KT 06/M05 A3029 RMK A01 T00591048  RH  046%=      5-min Rain = 0
KBO1 151630Z 30005KT 06/M05 A3029 RMK A01 T00601049  RH  045%=      5-min Rain = 0
KBO1 151631Z 31004KT 06/M05 A3029 RMK A01 T00591052  RH  045%=      5-min Rain = 0
KBO1 151632Z 32004KT 06/M05 A3029 RMK A01 T00591051  RH  045%=      5-min Rain = 0
KBO1 151633Z 31006KT 06/M05 A3029 RMK A01 T00591053  RH  044%=      5-min Rain = 0
KBO1 151634Z 30005KT 06/M06 A3029 RMK A01 T00591056  RH  043%=      5-min Rain = 0
KBO1 151635Z 32005KT 06/M06 A3029 RMK A01 T00581056  RH  044%=      5-min Rain = 0
KBO1 151636Z 30004KT 06/M05 A3029 RMK A01 T00581054  RH  044%=      5-min Rain = 0
KBO1 151637Z 32004KT 06/M05 A3029 RMK A01 T00591052  RH  045%=      5-min Rain = 0
KBO1 151638Z 34004KT 06/M05 A3029 RMK A01 T00601051  RH  045%=      5-min Rain = 0
KBO1 151639Z 33007KT 06/M05 A3029 RMK A01 T00611052  RH  044%=      5-min Rain = 0
KBO1 151640Z 33005KT 06/M05 A3029 RMK A01 T00621054  RH  043%=      5-min Rain = 0
KBO1 151641Z 31006KT 06/M05 A3029 RMK A01 T00611053  RH  044%=      5-min Rain = 0
KBO1 151642Z 32006KT 06/M05 A3029 RMK A01 T00621051  RH  044%=      5-min Rain = 0
KBO1 151643Z 32005KT 06/M05 A3029 RMK A01 T00641054  RH  043%=      5-min Rain = 0
KBO1 151644Z 32006KT 07/M06 A3029 RMK A01 T00651055  RH  042%=      5-min Rain = 0
KBO1 151645Z 33006KT 07/M06 A3029 RMK A01 T00651055  RH  042%=      5-min Rain = 0
KBO1 151646Z 32007KT 07/M05 A3029 RMK A01 T00651053  RH  043%=      5-min Rain = 0
KBO1 151647Z 31006KT 07/M05 A3029 RMK A01 T00651054  RH  042%=      5-min Rain = 0
KBO1 151648Z 30005KT 06/M06 A3029 RMK A01 T00641056  RH  042%=      5-min Rain = 0
KBO1 151649Z 32005KT 06/M06 A3029 RMK A01 T00641055  RH  042%=      5-min Rain = 0
KBO1 151650Z 33007KT 07/M05 A3029 RMK A01 T00651050  RH  044%=      5-min Rain = 0
KBO1 151651Z 32008KT 07/M05 A3029 RMK A01 T00661050  RH  043%=      5-min Rain = 0
KBO1 151652Z 30005KT 07/M06 A3029 RMK A01 T00671055  RH  041%=      5-min Rain = 0
KBO1 151653Z 30003KT 07/M05 A3029 RMK A01 T00661054  RH  042%=      5-min Rain = 0
KBO1 151654Z 30005KT 07/M05 A3028 RMK A01 T00661052  RH  043%=      5-min Rain = 0
KBO1 151655Z 32005KT 07/M05 A3028 RMK A01 T00681048  RH  043%=      5-min Rain = 0
KBO1 151656Z 31004KT 07/M05 A3028 RMK A01 T00691049  RH  043%=      5-min Rain = 0
KBO1 151657Z 33005KT 07/M05 A3028 RMK A01 T00701050  RH  042%=      5-min Rain = 0
KBO1 151658Z 33008KT 07/M05 A3028 RMK A01 T00701051  RH  042%=      5-min Rain = 0
KBO1 151659Z 33007KT 07/M05 A3028 RMK A01 T00711051  RH  042%=      5-min Rain = 0
KBO1 151700Z 32008KT 07/M05 A3028 RMK A01 T00711053  RH  041%=      5-min Rain = 0
KBO1 151701Z 31006KT 07/M05 A3028 RMK A01 T00701054  RH  041%=      5-min Rain = 0
KBO1 151702Z 33006KT 07/M06 A3028 RMK A01 T00681055  RH  041%=      5-min Rain = 0
KBO1 151703Z 33005KT 07/M06 A3028 RMK A01 T00681055  RH  041%=      5-min Rain = 0
KBO1 151704Z 33007KT 07/M06 A3028 RMK A01 T00701055  RH  041%=      5-min Rain = 0
KBO1 151705Z 32006KT 07/M06 A3028 RMK A01 T00701056  RH  040%=      5-min Rain = 0
KBO1 151706Z 30007KT 07/M05 A3028 RMK A01 T00701053  RH  041%=      5-min Rain = 0
KBO1 151707Z 31005KT 07/M06 A3028 RMK A01 T00701055  RH  041%=      5-min Rain = 0
KBO1 151708Z 31008KT 07/M06 A3028 RMK A01 T00681056  RH  041%=      5-min Rain = 0
KBO1 151709Z 31008KT 07/M05 A3028 RMK A01 T00691053  RH  042%=      5-min Rain = 0
KBO1 151710Z 32007KT 07/M05 A3028 RMK A01 T00701050  RH  042%=      5-min Rain = 0
KBO1 151711Z 33006KT 07/M05 A3028 RMK A01 T00701053  RH  041%=      5-min Rain = 0
KBO1 151712Z 32006KT 07/M05 A3028 RMK A01 T00701050  RH  042%=      5-min Rain = 0
KBO1 151713Z 32006KT 07/M05 A3028 RMK A01 T00721046  RH  043%=      5-min Rain = 0
KBO1 151714Z 31005KT 07/M05 A3029 RMK A01 T00731053  RH  041%=      5-min Rain = 0
KBO1 151715Z 30005KT 07/M05 A3028 RMK A01 T00711052  RH  041%=      5-min Rain = 0
KBO1 151716Z 34007KT 07/M05 A3029 RMK A01 T00711049  RH  042%=      5-min Rain = 0
KBO1 151717Z 34007KT 07/M05 A3029 RMK A01 T00731049  RH  042%=      5-min Rain = 0
KBO1 151718Z 35006KT 07/M05 A3029 RMK A01 T00741048  RH  042%=      5-min Rain = 0
KBO1 151719Z 34005KT 08/M05 A3029 RMK A01 T00751049  RH  041%=      5-min Rain = 0
KBO1 151720Z 33005KT 08/M05 A3029 RMK A01 T00751051  RH  040%=      5-min Rain = 0
KBO1 151721Z 29007KT 08/M05 A3028 RMK A01 T00751050  RH  041%=      5-min Rain = 0
KBO1 151722Z 29008KT 07/M05 A3028 RMK A01 T00731048  RH  042%=      5-min Rain = 0
KBO1 151723Z 29007KT 07/M05 A3028 RMK A01 T00731047  RH  042%=      5-min Rain = 0
KBO1 151724Z 32005KT 07/M05 A3028 RMK A01 T00721049  RH  042%=      5-min Rain = 0
KBO1 151725Z 33007KT 07/M05 A3028 RMK A01 T00721051  RH  041%=      5-min Rain = 0
KBO1 151726Z 34008KT 07/M05 A3028 RMK A01 T00721051  RH  041%=      5-min Rain = 0
KBO1 151727Z 31009KT 07/M05 A3028 RMK A01 T00741048  RH  042%=      5-min Rain = 0
KBO1 151728Z 30008KT 08/M05 A3028 RMK A01 T00761049  RH  041%=      5-min Rain = 0
KBO1 151729Z 29006KT 07/M06 A3028 RMK A01 T00741055  RH  039%=      5-min Rain = 0
KBO1 151730Z 30004KT 07/M05 A3028 RMK A01 T00731053  RH  040%=      5-min Rain = 0
KBO1 151731Z 31008KT 07/M05 A3028 RMK A01 T00741050  RH  041%=      5-min Rain = 0
KBO1 151732Z 32008KT 08/M05 A3028 RMK A01 T00761054  RH  039%=      5-min Rain = 0
KBO1 151733Z 32006KT 08/M06 A3028 RMK A01 T00751056  RH  039%=      5-min Rain = 0
KBO1 151734Z 31007KT 08/M05 A3028 RMK A01 T00761053  RH  040%=      5-min Rain = 0
KBO1 151735Z 32008KT 08/M05 A3028 RMK A01 T00761053  RH  039%=      5-min Rain = 0
KBO1 151736Z 30009KT 08/M05 A3028 RMK A01 T00761054  RH  039%=      5-min Rain = 0
KBO1 151737Z 29009KT 08/M05 A3028 RMK A01 T00771050  RH  040%=      5-min Rain = 0
KBO1 151738Z 30008KT 08/M05 A3028 RMK A01 T00791051  RH  039%=      5-min Rain = 0
KBO1 151739Z 31007KT 08/M05 A3028 RMK A01 T00781053  RH  039%=      5-min Rain = 0
KBO1 151740Z 31007KT 08/M05 A3028 RMK A01 T00781054  RH  039%=      5-min Rain = 0
KBO1 151741Z 31008KT 08/M05 A3028 RMK A01 T00781051  RH  040%=      5-min Rain = 0
KBO1 151742Z 31006KT 08/M05 A3028 RMK A01 T00781051  RH  040%=      5-min Rain = 0
KBO1 151743Z 31005KT 08/M05 A3027 RMK A01 T00791053  RH  039%=      5-min Rain = 0
KBO1 151744Z 30008KT 08/M05 A3027 RMK A01 T00791053  RH  039%=      5-min Rain = 0
KBO1 151745Z 31006KT 08/M05 A3027 RMK A01 T00821051  RH  039%=      5-min Rain = 0
KBO1 151746Z 28008KT 08/M05 A3027 RMK A01 T00831053  RH  038%=      5-min Rain = 0
KBO1 151747Z 30008KT 08/M06 A3027 RMK A01 T00821056  RH  037%=      5-min Rain = 0
KBO1 151748Z 30007KT 08/M05 A3027 RMK A01 T00821054  RH  038%=      5-min Rain = 0
KBO1 151749Z 32005KT 08/M05 A3027 RMK A01 T00831053  RH  038%=      5-min Rain = 0
KBO1 151750Z 32007KT 08/M06 A3027 RMK A01 T00841055  RH  037%=      5-min Rain = 0
KBO1 151751Z 33008KT 08/M06 A3027 RMK A01 T00841055  RH  037%=      5-min Rain = 0
KBO1 151752Z 31008KT 08/M06 A3027 RMK A01 T00831058  RH  036%=      5-min Rain = 0
KBO1 151753Z 31010KT 08/M05 A3027 RMK A01 T00831054  RH  037%=      5-min Rain = 0
KBO1 151754Z 30007KT 09/M05 A3027 RMK A01 T00851052  RH  037%=      5-min Rain = 0
KBO1 151755Z 28009KT 09/M05 A3027 RMK A01 T00861052  RH  037%=      5-min Rain = 0
KBO1 151756Z 28006KT 09/M06 A3027 RMK A01 T00851057  RH  036%=      5-min Rain = 0
KBO1 151757Z 30006KT 08/M06 A3027 RMK A01 T00841055  RH  037%=      5-min Rain = 0
KBO1 151758Z 31005KT 09/M05 A3027 RMK A01 T00851053  RH  037%=      5-min Rain = 0
KBO1 151759Z 31010G16KT 09/M05 A3026 RMK A01 T00871048  RH  038%=      5-min Rain = 0
KBO1 151800Z 31010KT 09/M05 A3027 RMK A01 T00911049  RH  037%=      5-min Rain = 0
KBO1 151801Z 31008KT 09/M06 A3027 RMK A01 T00911056  RH  035%=      5-min Rain = 0
KBO1 151802Z 30006KT 09/M06 A3027 RMK A01 T00891059  RH  035%=      5-min Rain = 0
KBO1 151803Z 31004KT 09/M06 A3027 RMK A01 T00881062  RH  034%=      5-min Rain = 0
KBO1 151804Z 32007KT 09/M06 A3026 RMK A01 T00861061  RH  035%=      5-min Rain = 0
KBO1 151805Z 30007KT 09/M06 A3027 RMK A01 T00861057  RH  036%=      5-min Rain = 0
KBO1 151806Z 29008KT 09/M05 A3026 RMK A01 T00881049  RH  038%=      5-min Rain = 0
KBO1 151807Z 31008KT 09/M05 A3026 RMK A01 T00921049  RH  037%=      5-min Rain = 0
KBO1 151808Z 29006KT 09/M05 A3026 RMK A01 T00941046  RH  037%=      5-min Rain = 0
KBO1 151809Z 29007KT 10/M05 A3026 RMK A01 T00951051  RH  035%=      5-min Rain = 0
KBO1 151810Z 32006KT 09/M05 A3026 RMK A01 T00941053  RH  035%=      5-min Rain = 0
KBO1 151811Z 32011KT 09/M06 A3026 RMK A01 T00941058  RH  034%=      5-min Rain = 0
KBO1 151812Z 33010KT 09/M06 A3026 RMK A01 T00921060  RH  033%=      5-min Rain = 0
KBO1 151813Z 33008KT 09/M06 A3026 RMK A01 T00901061  RH  034%=      5-min Rain = 0
KBO1 151814Z 34007KT 09/M06 A3026 RMK A01 T00921061  RH  034%=      5-min Rain = 0
KBO1 151815Z 32005KT 09/M07 A3026 RMK A01 T00901067  RH  032%=      5-min Rain = 0
KBO1 151816Z 30006KT 09/M06 A3026 RMK A01 T00901061  RH  034%=      5-min Rain = 0
KBO1 151817Z 29009KT 09/M05 A3026 RMK A01 T00931053  RH  035%=      5-min Rain = 0
KBO1 151818Z 30009KT 10/M06 A3026 RMK A01 T00951057  RH  034%=      5-min Rain = 0
KBO1 151819Z 31009KT 09/M06 A3026 RMK A01 T00941058  RH  034%=      5-min Rain = 0
KBO1 151820Z 30012KT 09/M05 A3026 RMK A01 T00941053  RH  035%=      5-min Rain = 0
KBO1 151821Z 30011KT 10/M06 A3026 RMK A01 T00951056  RH  034%=      5-min Rain = 0
KBO1 151822Z 29007KT 09/M06 A3026 RMK A01 T00911062  RH  033%=      5-min Rain = 0
KBO1 151823Z 29005KT 09/M06 A3026 RMK A01 T00891059  RH  034%=      5-min Rain = 0
KBO1 151824Z 31009KT 09/M05 A3026 RMK A01 T00931053  RH  035%=      5-min Rain = 0
KBO1 151825Z 31007KT 10/M05 A3026 RMK A01 T00961052  RH  035%=      5-min Rain = 0
KBO1 151826Z 31008KT 10/M05 A3025 RMK A01 T00991050  RH  035%=      5-min Rain = 0
KBO1 151827Z 31006KT 10/M05 A3026 RMK A01 T01021048  RH  034%=      5-min Rain = 0
KBO1 151828Z 31006KT 10/M06 A3025 RMK A01 T01011056  RH  033%=      5-min Rain = 0
KBO1 151829Z 30008KT 10/M05 A3025 RMK A01 T00991050  RH  034%=      5-min Rain = 0
KBO1 151830Z 31009KT 10/M05 A3025 RMK A01 T01001049  RH  035%=      5-min Rain = 0
KBO1 151831Z 32011KT 10/M05 A3025 RMK A01 T01011050  RH  034%=      5-min Rain = 0
KBO1 151832Z 31010KT 10/M06 A3025 RMK A01 T00991060  RH  032%=      5-min Rain = 0
KBO1 151833Z 29008KT 10/M06 A3025 RMK A01 T00951059  RH  033%=      5-min Rain = 0
KBO1 151834Z 29008KT 10/M06 A3025 RMK A01 T00951061  RH  033%=      5-min Rain = 0
KBO1 151835Z 30008KT 09/M06 A3025 RMK A01 T00941060  RH  033%=      5-min Rain = 0
KBO1 151836Z 31008KT 09/M06 A3025 RMK A01 T00941060  RH  033%=      5-min Rain = 0
KBO1 151837Z 32006KT 10/M06 A3025 RMK A01 T00951059  RH  033%=      5-min Rain = 0
KBO1 151838Z 32007KT 10/M06 A3025 RMK A01 T00961056  RH  034%=      5-min Rain = 0
KBO1 151839Z 33009KT 10/M06 A3025 RMK A01 T00991055  RH  033%=      5-min Rain = 0
KBO1 151840Z 31007KT 10/M06 A3025 RMK A01 T01001059  RH  032%=      5-min Rain = 0
KBO1 151841Z 31007KT 10/M06 A3025 RMK A01 T00981060  RH  032%=      5-min Rain = 0
KBO1 151842Z 31009G14KT 10/M06 A3024 RMK A01 T00991055  RH  033%=      5-min Rain = 0
KBO1 151843Z 32004KT 10/M06 A3025 RMK A01 T00981063  RH  032%=      5-min Rain = 0
KBO1 151844Z 31009KT 10/M06 A3024 RMK A01 T00961062  RH  032%=      5-min Rain = 0
KBO1 151845Z 30009KT 10/M05 A3024 RMK A01 T00991054  RH  034%=      5-min Rain = 0
KBO1 151846Z 29009KT 10/M06 A3024 RMK A01 T01001056  RH  033%=      5-min Rain = 0
KBO1 151847Z 29007KT 10/M06 A3024 RMK A01 T00991060  RH  032%=      5-min Rain = 0
KBO1 151848Z 30004KT 10/M07 A3024 RMK A01 T00961067  RH  031%=      5-min Rain = 0
KBO1 151849Z 31007KT 09/M06 A3024 RMK A01 T00941063  RH  033%=      5-min Rain = 0
KBO1 151850Z 30011KT 10/M06 A3024 RMK A01 T00971057  RH  033%=      5-min Rain = 0
KBO1 151851Z 31011KT 10/M06 A3024 RMK A01 T00981055  RH  034%=      5-min Rain = 0
KBO1 151852Z 30009KT 10/M05 A3024 RMK A01 T00991054  RH  034%=      5-min Rain = 0
KBO1 151853Z 29007KT 10/M06 A3024 RMK A01 T00991057  RH  033%=      5-min Rain = 0
KBO1 151854Z 25005KT 10/M06 A3024 RMK A01 T00971060  RH  032%=      5-min Rain = 0
KBO1 151855Z 29005KT 10/M06 A3024 RMK A01 T00971058  RH  033%=      5-min Rain = 0
KBO1 151856Z 30009KT 10/M05 A3024 RMK A01 T00981054  RH  034%=      5-min Rain = 0
KBO1 151857Z 31008KT 10/M06 A3024 RMK A01 T00991056  RH  033%=      5-min Rain = 0
KBO1 151858Z 30006KT 10/M06 A3024 RMK A01 T01011057  RH  033%=      5-min Rain = 0
KBO1 151859Z 30009KT 10/M06 A3024 RMK A01 T01011055  RH  033%=      5-min Rain = 0
KBO1 151900Z 31005KT 10/M06 A3024 RMK A01 T01011059  RH  032%=      5-min Rain = 0
KBO1 151901Z 28004KT 10/M06 A3024 RMK A01 T00991062  RH  032%=      5-min Rain = 0
KBO1 151902Z 32005KT 10/M06 A3024 RMK A01 T00981060  RH  032%=      5-min Rain = 0
KBO1 151903Z 31006KT 10/M06 A3024 RMK A01 T00981061  RH  032%=      5-min Rain = 0
KBO1 151904Z 31010KT 10/M06 A3024 RMK A01 T00991060  RH  032%=      5-min Rain = 0
KBO1 151905Z 31010KT 10/M06 A3024 RMK A01 T01001061  RH  032%=      5-min Rain = 0
KBO1 151906Z 32008KT 10/M06 A3024 RMK A01 T00991063  RH  031%=      5-min Rain = 0
KBO1 151907Z 33007KT 10/M06 A3024 RMK A01 T00981062  RH  032%=      5-min Rain = 0
KBO1 151908Z 33005KT 10/M06 A3023 RMK A01 T00991062  RH  032%=      5-min Rain = 0
KBO1 151909Z 01002KT 10/M07 A3023 RMK A01 T00991066  RH  030%=      5-min Rain = 0
KBO1 151910Z 03003KT 10/M07 A3023 RMK A01 T00991069  RH  030%=      5-min Rain = 0
KBO1 151911Z 34003KT 10/M07 A3023 RMK A01 T00981065  RH  031%=      5-min Rain = 0
KBO1 151912Z 30007G13KT 10/M06 A3023 RMK A01 T01001061  RH  032%=      5-min Rain = 0
KBO1 151913Z 31011KT 10/M05 A3023 RMK A01 T01031054  RH  033%=      5-min Rain = 0
KBO1 151914Z 32006KT 10/M06 A3023 RMK A01 T01031059  RH  031%=      5-min Rain = 0
KBO1 151915Z 33003KT 10/M07 A3023 RMK A01 T01001065  RH  031%=      5-min Rain = 0
KBO1 151916Z 32006KT 10/M06 A3023 RMK A01 T00991063  RH  031%=      5-min Rain = 0
KBO1 151917Z 27002KT 10/M07 A3023 RMK A01 T00981066  RH  031%=      5-min Rain = 0
KBO1 151918Z 33001KT 10/M07 A3022 RMK A01 T00981066  RH  031%=      5-min Rain = 0
KBO1 151919Z 31006KT 10/M06 A3022 RMK A01 T01001060  RH  032%=      5-min Rain = 0
KBO1 151920Z 31007KT 10/M06 A3022 RMK A01 T01021058  RH  032%=      5-min Rain = 0
KBO1 151921Z 32005KT 10/M06 A3022 RMK A01 T01021058  RH  032%=      5-min Rain = 0
KBO1 151922Z 34004KT 10/M06 A3022 RMK A01 T01031057  RH  032%=      5-min Rain = 0
KBO1 151923Z 33009KT 11/M06 A3022 RMK A01 T01051059  RH  031%=      5-min Rain = 0
KBO1 151924Z 34006KT 11/M06 A3022 RMK A01 T01051059  RH  031%=      5-min Rain = 0
KBO1 151925Z 35008KT 11/M06 A3022 RMK A01 T01051059  RH  031%=      5-min Rain = 0
KBO1 151926Z 35006KT 11/M06 A3022 RMK A01 T01071059  RH  031%=      5-min Rain = 0
KBO1 151927Z 35009KT 11/M06 A3022 RMK A01 T01081062  RH  030%=      5-min Rain = 0
KBO1 151928Z 35009KT 11/M07 A3022 RMK A01 T01061068  RH  029%=      5-min Rain = 0
KBO1 151929Z 36006KT 10/M07 A3022 RMK A01 T01031068  RH  029%=      5-min Rain = 0
KBO1 151930Z 34007KT 10/M07 A3022 RMK A01 T01021067  RH  030%=      5-min Rain = 0
KBO1 151931Z 33007KT 10/M06 A3022 RMK A01 T01021064  RH  030%=      5-min Rain = 0
KBO1 151932Z 34005KT 10/M07 A3022 RMK A01 T01021067  RH  030%=      5-min Rain = 0
KBO1 151933Z 31002KT 10/M07 A3022 RMK A01 T01021070  RH  029%=      5-min Rain = 0
KBO1 151934Z 35002KT 10/M07 A3022 RMK A01 T01021069  RH  029%=      5-min Rain = 0
KBO1 151935Z 33003KT 10/M07 A3021 RMK A01 T01021074  RH  028%=      5-min Rain = 0
KBO1 151936Z 32004KT 10/M07 A3021 RMK A01 T01021071  RH  029%=      5-min Rain = 0
KBO1 151937Z 32004KT 11/M06 A3021 RMK A01 T01051060  RH  031%=      5-min Rain = 0
KBO1 151938Z 29003KT 11/M07 A3021 RMK A01 T01071066  RH  029%=      5-min Rain = 0
KBO1 151939Z 32007KT 11/M06 A3021 RMK A01 T01071063  RH  030%=      5-min Rain = 0
KBO1 151940Z 31007KT 11/M06 A3021 RMK A01 T01071060  RH  030%=      5-min Rain = 0
KBO1 151941Z 32008KT 11/M06 A3021 RMK A01 T01071060  RH  030%=      5-min Rain = 0
KBO1 151942Z 32009KT 11/M06 A3021 RMK A01 T01071062  RH  030%=      5-min Rain = 0
KBO1 151943Z 33009KT 11/M06 A3021 RMK A01 T01091056  RH  031%=      5-min Rain = 0
KBO1 151944Z 34007KT 11/M06 A3021 RMK A01 T01101059  RH  030%=      5-min Rain = 0
KBO1 151945Z 36007KT 11/M06 A3021 RMK A01 T01091063  RH  029%=      5-min Rain = 0
KBO1 151946Z 00005KT 11/M06 A3021 RMK A01 T01081062  RH  030%=      5-min Rain = 0
KBO1 151947Z 32005KT 11/M06 A3021 RMK A01 T01081060  RH  030%=      5-min Rain = 0
KBO1 151948Z 29005KT 11/M06 A3021 RMK A01 T01111056  RH  031%=      5-min Rain = 0
KBO1 151949Z 31004KT 11/M06 A3021 RMK A01 T01121062  RH  029%=      5-min Rain = 0
KBO1 151950Z 31004KT 11/M06 A3021 RMK A01 T01111062  RH  029%=      5-min Rain = 0
KBO1 151951Z 31010KT 11/M06 A3021 RMK A01 T01111061  RH  029%=      5-min Rain = 0
KBO1 151952Z 30008KT 11/M06 A3021 RMK A01 T01091063  RH  029%=      5-min Rain = 0
KBO1 151953Z 30005KT 11/M06 A3021 RMK A01 T01071063  RH  030%=      5-min Rain = 0
KBO1 151954Z 30003KT 11/M06 A3021 RMK A01 T01071059  RH  031%=      5-min Rain = 0
KBO1 151955Z 31005KT 11/M06 A3021 RMK A01 T01071062  RH  030%=      5-min Rain = 0
KBO1 151956Z 32005KT 11/M07 A302 RMK A01 T01081066  RH  029%=      5-min Rain = 0
KBO1 151957Z 32003KT 11/M07 A302 RMK A01 T01071069  RH  028%=      5-min Rain = 0
KBO1 151958Z 34002KT 11/M07 A302 RMK A01 T01061070  RH  028%=      5-min Rain = 0
KBO1 151959Z 03002KT 11/M07 A302 RMK A01 T01051071  RH  028%=      5-min Rain = 0
KBO1 152000Z 28004KT 11/M07 A302 RMK A01 T01071068  RH  029%=      5-min Rain = 0
KBO1 152001Z 27004KT 11/M07 A302 RMK A01 T01071067  RH  029%=      5-min Rain = 0
KBO1 152002Z 28004KT 11/M07 A302 RMK A01 T01071066  RH  029%=      5-min Rain = 0
KBO1 152003Z 33006KT 11/M07 A302 RMK A01 T01071065  RH  029%=      5-min Rain = 0
KBO1 152004Z 31009KT 11/M07 A302 RMK A01 T01071066  RH  029%=      5-min Rain = 0
KBO1 152005Z 31007KT 11/M07 A302 RMK A01 T01071065  RH  029%=      5-min Rain = 0
KBO1 152006Z 30005KT 11/M06 A302 RMK A01 T01081064  RH  029%=      5-min Rain = 0
KBO1 152007Z 33005KT 11/M06 A302 RMK A01 T01091063  RH  029%=      5-min Rain = 0
KBO1 152008Z 34008KT 11/M06 A302 RMK A01 T01101062  RH  029%=      5-min Rain = 0
KBO1 152009Z 34006KT 11/M06 A302 RMK A01 T01121062  RH  029%=      5-min Rain = 0
KBO1 152010Z 35004KT 11/M07 A302 RMK A01 T01111065  RH  028%=      5-min Rain = 0
KBO1 152011Z 33006KT 11/M06 A302 RMK A01 T01101062  RH  029%=      5-min Rain = 0
KBO1 152012Z 31006KT 11/M06 A302 RMK A01 T01101063  RH  029%=      5-min Rain = 0
KBO1 152013Z 33003KT 11/M07 A302 RMK A01 T01091066  RH  029%=      5-min Rain = 0
KBO1 152014Z 33000KT 11/M07 A302 RMK A01 T01071066  RH  029%=      5-min Rain = 0
KBO1 152015Z 30002KT 11/M07 A3019 RMK A01 T01081065  RH  029%=      5-min Rain = 0
KBO1 152016Z 32007KT 11/M06 A302 RMK A01 T01111060  RH  030%=      5-min Rain = 0
KBO1 152017Z 32007KT 11/M06 A3019 RMK A01 T01131059  RH  029%=      5-min Rain = 0
KBO1 152018Z 31009KT 11/M06 A3019 RMK A01 T01141059  RH  029%=      5-min Rain = 0
KBO1 152019Z 31007KT 11/M06 A3019 RMK A01 T01141057  RH  030%=      5-min Rain = 0
KBO1 152020Z 31009KT 11/M06 A3019 RMK A01 T01141060  RH  029%=      5-min Rain = 0
KBO1 152021Z 32008KT 11/M06 A3019 RMK A01 T01131060  RH  029%=      5-min Rain = 0
KBO1 152022Z 33007KT 11/M06 A3019 RMK A01 T01131062  RH  029%=      5-min Rain = 0
KBO1 152023Z 31007KT 11/M07 A3019 RMK A01 T01121066  RH  028%=      5-min Rain = 0
KBO1 152024Z 28005KT 11/M07 A3019 RMK A01 T01101069  RH  028%=      5-min Rain = 0
KBO1 152025Z 25003KT 11/M07 A3019 RMK A01 T01081067  RH  028%=      5-min Rain = 0
KBO1 152026Z 29008G13KT 11/M06 A3019 RMK A01 T01101063  RH  029%=      5-min Rain = 0
KBO1 152027Z 32009KT 11/M06 A3019 RMK A01 T01131059  RH  029%=      5-min Rain = 0
KBO1 152028Z 32008KT 11/M06 A3019 RMK A01 T01141063  RH  028%=      5-min Rain = 0
KBO1 152029Z 32007KT 11/M06 A3019 RMK A01 T01121064  RH  029%=      5-min Rain = 0
KBO1 152030Z 31006KT 11/M07 A3019 RMK A01 T01111066  RH  028%=      5-min Rain = 0
KBO1 152031Z 31004KT 11/M07 A3019 RMK A01 T01101065  RH  029%=      5-min Rain = 0
KBO1 152032Z 31003KT 11/M07 A3019 RMK A01 T01101068  RH  028%=      5-min Rain = 0
KBO1 152033Z 30008KT 11/M06 A3019 RMK A01 T01101063  RH  029%=      5-min Rain = 0
KBO1 152034Z 30004KT 11/M07 A3019 RMK A01 T01121067  RH  028%=      5-min Rain = 0
KBO1 152035Z 31003KT 11/M07 A3019 RMK A01 T01111070  RH  027%=      5-min Rain = 0
KBO1 152036Z 29006KT 11/M07 A3019 RMK A01 T01111066  RH  028%=      5-min Rain = 0
KBO1 152037Z 31010KT 11/M06 A3019 RMK A01 T01141062  RH  028%=      5-min Rain = 0
KBO1 152038Z 29009KT 11/M06 A3019 RMK A01 T01141062  RH  028%=      5-min Rain = 0
KBO1 152039Z 28006KT 11/M06 A3019 RMK A01 T01141064  RH  028%=      5-min Rain = 0
KBO1 152040Z 28007KT 12/M05 A3019 RMK A01 T01171053  RH  030%=      5-min Rain = 0
KBO1 152041Z 29006KT 12/M05 A3019 RMK A01 T01221054  RH  029%=      5-min Rain = 0
KBO1 152042Z 30008KT 12/M06 A3019 RMK A01 T01221058  RH  028%=      5-min Rain = 0
KBO1 152043Z 29009KT 12/M06 A3019 RMK A01 T01191062  RH  028%=      5-min Rain = 0
KBO1 152044Z 28007KT 12/M06 A3019 RMK A01 T01161061  RH  028%=      5-min Rain = 0
KBO1 152045Z 27006KT 12/M06 A3018 RMK A01 T01151063  RH  028%=      5-min Rain = 0
KBO1 152046Z 27005KT 11/M06 A3018 RMK A01 T01141061  RH  029%=      5-min Rain = 0
KBO1 152047Z 26004KT 11/M07 A3018 RMK A01 T01141066  RH  028%=      5-min Rain = 0
KBO1 152048Z 26005KT 11/M07 A3018 RMK A01 T01131066  RH  028%=      5-min Rain = 0
KBO1 152049Z 24003KT 11/M07 A3018 RMK A01 T01131067  RH  028%=      5-min Rain = 0
KBO1 152050Z 25008KT 12/M06 A3018 RMK A01 T01151057  RH  029%=      5-min Rain = 0
KBO1 152051Z 29009KT 12/M06 A3018 RMK A01 T01181059  RH  029%=      5-min Rain = 0
KBO1 152052Z 30005KT 12/M06 A3018 RMK A01 T01171060  RH  028%=      5-min Rain = 0
KBO1 152053Z 25004KT 12/M06 A3018 RMK A01 T01161058  RH  029%=      5-min Rain = 0
KBO1 152054Z 27003KT 12/M06 A3018 RMK A01 T01171058  RH  029%=      5-min Rain = 0
KBO1 152055Z 26006KT 12/M06 A3018 RMK A01 T01181060  RH  028%=      5-min Rain = 0
KBO1 152056Z 29007KT 12/M06 A3018 RMK A01 T01181059  RH  029%=      5-min Rain = 0
KBO1 152057Z 30008KT 12/M06 A3018 RMK A01 T01181060  RH  028%=      5-min Rain = 0
KBO1 152058Z 29005KT 12/M06 A3018 RMK A01 T01181064  RH  027%=      5-min Rain = 0
KBO1 152059Z 28007KT 12/M07 A3018 RMK A01 T01171065  RH  027%=      5-min Rain = 0
KBO1 152100Z 27004KT 12/M07 A3018 RMK A01 T01151069  RH  027%=      5-min Rain = 0
KBO1 152101Z 25002KT 11/M07 A3018 RMK A01 T01131073  RH  027%=      5-min Rain = 0
KBO1 152102Z 31002KT 11/M07 A3018 RMK A01 T01121074  RH  026%=      5-min Rain = 0
KBO1 152103Z 31006KT 11/M07 A3018 RMK A01 T01121070  RH  027%=      5-min Rain = 0
KBO1 152104Z 32007KT 11/M07 A3018 RMK A01 T01131068  RH  027%=      5-min Rain = 0
KBO1 152105Z 32006KT 11/M07 A3018 RMK A01 T01141069  RH  027%=      5-min Rain = 0
KBO1 152106Z 28008KT 11/M07 A3017 RMK A01 T01141069  RH  027%=      5-min Rain = 0
KBO1 152107Z 24007KT 11/M06 A3018 RMK A01 T01141064  RH  028%=      5-min Rain = 0
KBO1 152108Z 23004KT 12/M07 A3018 RMK A01 T01161066  RH  027%=      5-min Rain = 0
KBO1 152109Z 26005KT 12/M07 A3017 RMK A01 T01151070  RH  027%=      5-min Rain = 0
KBO1 152110Z 28006KT 12/M06 A3017 RMK A01 T01161062  RH  028%=      5-min Rain = 0
KBO1 152111Z 28004KT 12/M07 A3017 RMK A01 T01181068  RH  027%=      5-min Rain = 0
KBO1 152112Z 27004KT 12/M07 A3017 RMK A01 T01181067  RH  027%=      5-min Rain = 0
KBO1 152113Z 26005KT 12/M07 A3017 RMK A01 T01191066  RH  027%=      5-min Rain = 0
KBO1 152114Z 25003KT 12/M07 A3017 RMK A01 T01181071  RH  026%=      5-min Rain = 0
KBO1 152115Z 24002KT 12/M07 A3017 RMK A01 T01171069  RH  027%=      5-min Rain = 0
KBO1 152116Z 23001KT 12/M07 A3017 RMK A01 T01171073  RH  026%=      5-min Rain = 0
KBO1 152117Z 26005KT 12/M07 A3017 RMK A01 T01181070  RH  026%=      5-min Rain = 0
KBO1 152118Z 24006KT 12/M06 A3017 RMK A01 T01191063  RH  028%=      5-min Rain = 0
KBO1 152119Z 23004KT 12/M06 A3017 RMK A01 T01191063  RH  027%=      5-min Rain = 0
KBO1 152120Z 25007KT 12/M06 A3017 RMK A01 T01191059  RH  028%=      5-min Rain = 0
KBO1 152121Z 30007KT 12/M06 A3017 RMK A01 T01201060  RH  028%=      5-min Rain = 0
KBO1 152122Z 24005KT 12/M06 A3017 RMK A01 T01201062  RH  027%=      5-min Rain = 0
KBO1 152123Z 24006KT 12/M06 A3016 RMK A01 T01211061  RH  028%=      5-min Rain = 0
KBO1 152124Z 27007KT 12/M06 A3017 RMK A01 T01211059  RH  028%=      5-min Rain = 0
KBO1 152125Z 29007KT 12/M06 A3016 RMK A01 T01211057  RH  028%=      5-min Rain = 0
KBO1 152126Z 30011KT 12/M06 A3016 RMK A01 T01231057  RH  028%=      5-min Rain = 0
KBO1 152127Z 31010KT 12/M06 A3016 RMK A01 T01221063  RH  027%=      5-min Rain = 0
KBO1 152128Z 30009KT 12/M07 A3016 RMK A01 T01201065  RH  027%=      5-min Rain = 0
KBO1 152129Z 29010KT 12/M06 A3016 RMK A01 T01201061  RH  028%=      5-min Rain = 0
KBO1 152130Z 30008KT 12/M07 A3016 RMK A01 T01201066  RH  027%=      5-min Rain = 0
KBO1 152131Z 29006KT 12/M07 A3016 RMK A01 T01191066  RH  027%=      5-min Rain = 0
KBO1 152132Z 29006KT 12/M07 A3016 RMK A01 T01191070  RH  026%=      5-min Rain = 0
KBO1 152133Z 30007KT 12/M07 A3016 RMK A01 T01191068  RH  026%=      5-min Rain = 0
KBO1 152134Z 32008KT 12/M07 A3016 RMK A01 T01191068  RH  027%=      5-min Rain = 0
KBO1 152135Z 33006KT 12/M07 A3016 RMK A01 T01191074  RH  025%=      5-min Rain = 0
KBO1 152136Z 31008KT 12/M07 A3016 RMK A01 T01191070  RH  026%=      5-min Rain = 0
KBO1 152137Z 30006KT 12/M07 A3016 RMK A01 T01191067  RH  027%=      5-min Rain = 0
KBO1 152138Z 30003KT 12/M07 A3016 RMK A01 T01191066  RH  027%=      5-min Rain = 0
KBO1 152139Z 30007KT 12/M06 A3016 RMK A01 T01211059  RH  028%=      5-min Rain = 0
KBO1 152140Z 31007KT 12/M06 A3016 RMK A01 T01231063  RH  027%=      5-min Rain = 0
KBO1 152141Z 29008KT 12/M06 A3016 RMK A01 T01221061  RH  027%=      5-min Rain = 0
KBO1 152142Z 28006KT 12/M07 A3016 RMK A01 T01221065  RH  026%=      5-min Rain = 0
KBO1 152143Z 27006KT 12/M07 A3016 RMK A01 T01211065  RH  027%=      5-min Rain = 0
KBO1 152144Z 27005KT 12/M07 A3016 RMK A01 T01201067  RH  026%=      5-min Rain = 0
KBO1 152145Z 24000KT 12/M07 A3016 RMK A01 T01191071  RH  026%=      5-min Rain = 0
KBO1 152146Z 32000KT 12/M07 A3016 RMK A01 T01191071  RH  026%=      5-min Rain = 0
KBO1 152147Z 36004KT 12/M07 A3016 RMK A01 T01211066  RH  027%=      5-min Rain = 0
KBO1 152148Z 34004KT 12/M07 A3016 RMK A01 T01221065  RH  026%=      5-min Rain = 0
KBO1 152149Z 30003KT 12/M07 A3016 RMK A01 T01231067  RH  026%=      5-min Rain = 0
KBO1 152150Z 30002KT 12/M07 A3016 RMK A01 T01231068  RH  026%=      5-min Rain = 0
KBO1 152151Z 28002KT 12/M07 A3016 RMK A01 T01231069  RH  026%=      5-min Rain = 0
KBO1 152152Z 28000KT 12/M07 A3016 RMK A01 T01221072  RH  025%=      5-min Rain = 0
KBO1 152153Z 34002KT 12/M07 A3016 RMK A01 T01221070  RH  026%=      5-min Rain = 0
KBO1 152154Z 28001KT 12/M07 A3016 RMK A01 T01221065  RH  027%=      5-min Rain = 0
KBO1 152155Z 29004KT 12/M06 A3016 RMK A01 T01241061  RH  027%=      5-min Rain = 0
KBO1 152156Z 28006KT 13/M06 A3016 RMK A01 T01261061  RH  027%=      5-min Rain = 0
KBO1 152157Z 28005KT 13/M07 A3015 RMK A01 T01261068  RH  025%=      5-min Rain = 0
KBO1 152158Z 27005KT 12/M07 A3015 RMK A01 T01241068  RH  026%=      5-min Rain = 0
KBO1 152159Z 27007KT 12/M07 A3015 RMK A01 T01241066  RH  026%=      5-min Rain = 0
KBO1 152200Z 26007KT 12/M06 A3015 RMK A01 T01241062  RH  027%=      5-min Rain = 0
KBO1 152201Z 26009KT 13/M06 A3015 RMK A01 T01251056  RH  028%=      5-min Rain = 0
KBO1 152202Z 26008KT 13/M06 A3015 RMK A01 T01261062  RH  026%=      5-min Rain = 0
KBO1 152203Z 26005KT 13/M06 A3015 RMK A01 T01251063  RH  027%=      5-min Rain = 0
KBO1 152204Z 24005KT 13/M06 A3015 RMK A01 T01251064  RH  026%=      5-min Rain = 0
KBO1 152205Z 26003KT 12/M07 A3015 RMK A01 T01241068  RH  026%=      5-min Rain = 0
KBO1 152206Z 21003KT 12/M07 A3015 RMK A01 T01241068  RH  025%=      5-min Rain = 0
KBO1 152207Z 24003KT 13/M07 A3015 RMK A01 T01251066  RH  026%=      5-min Rain = 0
KBO1 152208Z 25002KT 13/M07 A3015 RMK A01 T01261067  RH  025%=      5-min Rain = 0
KBO1 152209Z 22004KT 13/M07 A3015 RMK A01 T01261065  RH  026%=      5-min Rain = 0
KBO1 152210Z 22005KT 13/M07 A3015 RMK A01 T01271066  RH  025%=      5-min Rain = 0
KBO1 152211Z 24004KT 13/M07 A3015 RMK A01 T01261069  RH  025%=      5-min Rain = 0
KBO1 152212Z 26004KT 13/M07 A3015 RMK A01 T01251065  RH  026%=      5-min Rain = 0
KBO1 152213Z 24004KT 13/M07 A3015 RMK A01 T01251068  RH  025%=      5-min Rain = 0
KBO1 152214Z 24005KT 13/M06 A3015 RMK A01 T01261062  RH  027%=      5-min Rain = 0
KBO1 152215Z 25006KT 13/M06 A3015 RMK A01 T01261062  RH  026%=      5-min Rain = 0
KBO1 152216Z 23004KT 13/M06 A3015 RMK A01 T01251064  RH  026%=      5-min Rain = 0
KBO1 152217Z 21005KT 12/M07 A3015 RMK A01 T01241066  RH  026%=      5-min Rain = 0
KBO1 152218Z 22005KT 13/M06 A3015 RMK A01 T01251061  RH  027%=      5-min Rain = 0
KBO1 152219Z 25005KT 13/M06 A3015 RMK A01 T01261061  RH  027%=      5-min Rain = 0
KBO1 152220Z 30006KT 13/M06 A3015 RMK A01 T01261062  RH  026%=      5-min Rain = 0
KBO1 152221Z 30005KT 13/M07 A3015 RMK A01 T01261068  RH  025%=      5-min Rain = 0
KBO1 152222Z 30007KT 12/M07 A3014 RMK A01 T01241067  RH  026%=      5-min Rain = 0
KBO1 152223Z 29007KT 13/M06 A3014 RMK A01 T01251058  RH  027%=      5-min Rain = 0
KBO1 152224Z 31005KT 13/M06 A3014 RMK A01 T01271060  RH  027%=      5-min Rain = 0
KBO1 152225Z 29004KT 13/M06 A3014 RMK A01 T01271061  RH  026%=      5-min Rain = 0
KBO1 152226Z 29003KT 13/M06 A3014 RMK A01 T01281061  RH  026%=      5-min Rain = 0
KBO1 152227Z 31003KT 13/M07 A3014 RMK A01 T01281065  RH  025%=      5-min Rain = 0
KBO1 152228Z 32005KT 13/M06 A3014 RMK A01 T01271064  RH  026%=      5-min Rain = 0
KBO1 152229Z 29006KT 13/M06 A3014 RMK A01 T01271062  RH  026%=      5-min Rain = 0
KBO1 152230Z 29006KT 13/M06 A3014 RMK A01 T01271061  RH  026%=      5-min Rain = 0
KBO1 152231Z 30007KT 13/M06 A3014 RMK A01 T01271060  RH  027%=      5-min Rain = 0
KBO1 152232Z 29006KT 13/M06 A3014 RMK A01 T01281060  RH  027%=      5-min Rain = 0
KBO1 152233Z 31006KT 13/M06 A3014 RMK A01 T01271062  RH  026%=      5-min Rain = 0
KBO1 152234Z 31007KT 13/M06 A3014 RMK A01 T01271061  RH  027%=      5-min Rain = 0
KBO1 152235Z 31005KT 13/M06 A3014 RMK A01 T01271064  RH  026%=      5-min Rain = 0
KBO1 152236Z 31006KT 13/M06 A3014 RMK A01 T01271064  RH  026%=      5-min Rain = 0
KBO1 152237Z 31005KT 13/M06 A3014 RMK A01 T01261063  RH  026%=      5-min Rain = 0
KBO1 152238Z 28003KT 13/M06 A3014 RMK A01 T01271062  RH  026%=      5-min Rain = 0
KBO1 152239Z 27003KT 13/M06 A3014 RMK A01 T01271060  RH  027%=      5-min Rain = 0
KBO1 152240Z 26004KT 13/M06 A3014 RMK A01 T01291058  RH  027%=      5-min Rain = 0
KBO1 152241Z 23004KT 13/M06 A3014 RMK A01 T01301060  RH  026%=      5-min Rain = 0
KBO1 152242Z 24004KT 13/M06 A3014 RMK A01 T01301062  RH  026%=      5-min Rain = 0
KBO1 152243Z 26004KT 13/M06 A3014 RMK A01 T01281063  RH  026%=      5-min Rain = 0
KBO1 152244Z 24005KT 13/M06 A3014 RMK A01 T01271061  RH  026%=      5-min Rain = 0
KBO1 152245Z 24003KT 13/M07 A3014 RMK A01 T01271065  RH  026%=      5-min Rain = 0
KBO1 152246Z 22007KT 13/M06 A3014 RMK A01 T01261062  RH  026%=      5-min Rain = 0
KBO1 152247Z 24007KT 13/M06 A3013 RMK A01 T01261062  RH  026%=      5-min Rain = 0
KBO1 152248Z 23004KT 13/M07 A3013 RMK A01 T01251066  RH  026%=      5-min Rain = 0
KBO1 152249Z 23004KT 12/M06 A3013 RMK A01 T01241063  RH  027%=      5-min Rain = 0
KBO1 152250Z 27003KT 12/M06 A3013 RMK A01 T01241063  RH  026%=      5-min Rain = 0
KBO1 152251Z 31003KT 13/M06 A3013 RMK A01 T01251060  RH  027%=      5-min Rain = 0
KBO1 152252Z 32002KT 13/M07 A3013 RMK A01 T01261065  RH  026%=      5-min Rain = 0
KBO1 152253Z 34002KT 13/M07 A3013 RMK A01 T01261066  RH  026%=      5-min Rain = 0
KBO1 152254Z 31001KT 13/M07 A3013 RMK A01 T01261067  RH  025%=      5-min Rain = 0
KBO1 152255Z 23003KT 13/M07 A3013 RMK A01 T01261065  RH  026%=      5-min Rain = 0
KBO1 152256Z 22002KT 13/M06 A3013 RMK A01 T01281060  RH  027%=      5-min Rain = 0
KBO1 152257Z 21002KT 13/M06 A3013 RMK A01 T01281063  RH  026%=      5-min Rain = 0
KBO1 152258Z 24002KT 13/M06 A3013 RMK A01 T01291064  RH  026%=      5-min Rain = 0
KBO1 152259Z 24004KT 13/M06 A3013 RMK A01 T01291062  RH  026%=      5-min Rain = 0
KBO1 152300Z 24006G12KT 13/M06 A3013 RMK A01 T01291061  RH  026%=      5-min Rain = 0
KBO1 152301Z 27006KT 13/M06 A3013 RMK A01 T01291062  RH  026%=      5-min Rain = 0
KBO1 152302Z 29006KT 13/M06 A3013 RMK A01 T01271063  RH  026%=      5-min Rain = 0
KBO1 152303Z 29006KT 13/M06 A3013 RMK A01 T01261063  RH  026%=      5-min Rain = 0
KBO1 152304Z 30006KT 13/M06 A3013 RMK A01 T01261062  RH  026%=      5-min Rain = 0
KBO1 152305Z 28009KT 13/M06 A3013 RMK A01 T01261059  RH  027%=      5-min Rain = 0
KBO1 152306Z 26008KT 13/M06 A3013 RMK A01 T01261059  RH  027%=      5-min Rain = 0
KBO1 152307Z 25009KT 13/M06 A3013 RMK A01 T01251059  RH  027%=      5-min Rain = 0
KBO1 152308Z 25007KT 13/M06 A3013 RMK A01 T01251057  RH  028%=      5-min Rain = 0
KBO1 152309Z 24006KT 12/M06 A3013 RMK A01 T01241058  RH  027%=      5-min Rain = 0
KBO1 152310Z 23004KT 12/M06 A3013 RMK A01 T01241060  RH  027%=      5-min Rain = 0
KBO1 152311Z 25006KT 13/M06 A3013 RMK A01 T01251056  RH  028%=      5-min Rain = 0
KBO1 152312Z 25005KT 13/M06 A3013 RMK A01 T01261058  RH  027%=      5-min Rain = 0
KBO1 152313Z 23008KT 13/M06 A3013 RMK A01 T01261057  RH  027%=      5-min Rain = 0
KBO1 152314Z 22008KT 13/M06 A3013 RMK A01 T01261058  RH  027%=      5-min Rain = 0
KBO1 152315Z 23008KT 13/M06 A3013 RMK A01 T01251061  RH  027%=      5-min Rain = 0
KBO1 152316Z 24006KT 12/M06 A3013 RMK A01 T01241059  RH  027%=      5-min Rain = 0
KBO1 152317Z 23005KT 12/M06 A3013 RMK A01 T01231059  RH  027%=      5-min Rain = 0
KBO1 152318Z 21004KT 12/M06 A3013 RMK A01 T01231061  RH  027%=      5-min Rain = 0
KBO1 152319Z 23005KT 12/M06 A3013 RMK A01 T01241064  RH  027%=      5-min Rain = 0
KBO1 152320Z 24005KT 12/M06 A3013 RMK A01 T01241063  RH  026%=      5-min Rain = 0
KBO1 152321Z 25005KT 12/M06 A3013 RMK A01 T01241061  RH  027%=      5-min Rain = 0
KBO1 152322Z 27008KT 13/M06 A3013 RMK A01 T01251059  RH  027%=      5-min Rain = 0
KBO1 152323Z 27007KT 13/M06 A3013 RMK A01 T01251060  RH  027%=      5-min Rain = 0
KBO1 152324Z 26008KT 12/M06 A3013 RMK A01 T01241060  RH  027%=      5-min Rain = 0
KBO1 152325Z 27006KT 12/M06 A3012 RMK A01 T01241064  RH  026%=      5-min Rain = 0
KBO1 152326Z 26004KT 12/M07 A3012 RMK A01 T01231066  RH  026%=      5-min Rain = 0
KBO1 152327Z 26005KT 12/M06 A3012 RMK A01 T01231060  RH  027%=      5-min Rain = 0
KBO1 152328Z 25005KT 12/M07 A3012 RMK A01 T01241066  RH  026%=      5-min Rain = 0
KBO1 152329Z 26005KT 12/M07 A3012 RMK A01 T01231065  RH  026%=      5-min Rain = 0
KBO1 152330Z 26006KT 12/M06 A3012 RMK A01 T01241064  RH  026%=      5-min Rain = 0
KBO1 152331Z 26010KT 12/M06 A3012 RMK A01 T01231061  RH  027%=      5-min Rain = 0
KBO1 152332Z 26009KT 12/M06 A3012 RMK A01 T01231062  RH  027%=      5-min Rain = 0
KBO1 152333Z 27006KT 12/M06 A3012 RMK A01 T01211062  RH  027%=      5-min Rain = 0
KBO1 152334Z 27006KT 12/M06 A3013 RMK A01 T01211058  RH  028%=      5-min Rain = 0
KBO1 152335Z 26006KT 12/M06 A3012 RMK A01 T01211056  RH  028%=      5-min Rain = 0
KBO1 152336Z 26006KT 12/M06 A3013 RMK A01 T01221055  RH  029%=      5-min Rain = 0
KBO1 152337Z 27005KT 12/M06 A3012 RMK A01 T01221062  RH  027%=      5-min Rain = 0
KBO1 152338Z 27005KT 12/M07 A3012 RMK A01 T01221065  RH  027%=      5-min Rain = 0
KBO1 152339Z 25006KT 12/M06 A3012 RMK A01 T01221063  RH  027%=      5-min Rain = 0
KBO1 152340Z 25005KT 12/M06 A3012 RMK A01 T01221064  RH  027%=      5-min Rain = 0
KBO1 152341Z 24005KT 12/M06 A3012 RMK A01 T01211062  RH  027%=      5-min Rain = 0
KBO1 152342Z 25006KT 12/M06 A3012 RMK A01 T01221061  RH  027%=      5-min Rain = 0
KBO1 152343Z 24004KT 12/M07 A3012 RMK A01 T01211067  RH  026%=      5-min Rain = 0
KBO1 152344Z 25004KT 12/M06 A3012 RMK A01 T01211061  RH  027%=      5-min Rain = 0
KBO1 152345Z 24005KT 12/M06 A3012 RMK A01 T01221056  RH  028%=      5-min Rain = 0
KBO1 152346Z 26005KT 12/M06 A3012 RMK A01 T01211057  RH  028%=      5-min Rain = 0
KBO1 152347Z 26004KT 12/M06 A3013 RMK A01 T01211063  RH  027%=      5-min Rain = 0
KBO1 152348Z 25004KT 12/M06 A3013 RMK A01 T01211061  RH  028%=      5-min Rain = 0
KBO1 152349Z 25006KT 12/M06 A3013 RMK A01 T01211060  RH  028%=      5-min Rain = 0
KBO1 152350Z 24007KT 12/M06 A3013 RMK A01 T01201061  RH  028%=      5-min Rain = 0
KBO1 152351Z 24006KT 12/M06 A3013 RMK A01 T01201059  RH  028%=      5-min Rain = 0
KBO1 152352Z 25006KT 12/M06 A3013 RMK A01 T01191056  RH  029%=      5-min Rain = 0
KBO1 152353Z 25006KT 12/M06 A3013 RMK A01 T01181058  RH  029%=      5-min Rain = 0
KBO1 152354Z 25005KT 12/M06 A3012 RMK A01 T01181060  RH  028%=      5-min Rain = 0
KBO1 152355Z 24004KT 12/M06 A3013 RMK A01 T01171056  RH  029%=      5-min Rain = 0
KBO1 152356Z 24006KT 12/M05 A3013 RMK A01 T01161054  RH  030%=      5-min Rain = 0
KBO1 152357Z 25007KT 12/M06 A3013 RMK A01 T01161059  RH  029%=      5-min Rain = 0
KBO1 152358Z 25008KT 12/M06 A3013 RMK A01 T01161060  RH  029%=      5-min Rain = 0
KBO1 152359Z 24006KT 12/M07 A3013 RMK A01 T01161065  RH  028%=      5-min Rain = 0
KBO1 160000Z 24005KT 12/M06 A3013 RMK A01 T01151056  RH  030%=      5-min Rain = 0
KBO1 160001Z 24005KT 11/M05 A3013 RMK A01 T01141052  RH  031%=      5-min Rain = 0
KBO1 160002Z 23005KT 11/M05 A3013 RMK A01 T01131053  RH  031%=      5-min Rain = 0
KBO1 160003Z 23005KT 11/M05 A3013 RMK A01 T01131052  RH  031%=      5-min Rain = 0
KBO1 160004Z 23005KT 11/M05 A3013 RMK A01 T01121051  RH  032%=      5-min Rain = 0
KBO1 160005Z 23005KT 11/M05 A3013 RMK A01 T01111050  RH  032%=      5-min Rain = 0
KBO1 160006Z 24006KT 11/M05 A3013 RMK A01 T01101052  RH  032%=      5-min Rain = 0
KBO1 160007Z 24006KT 11/M06 A3012 RMK A01 T01091055  RH  031%=      5-min Rain = 0
KBO1 160008Z 24005KT 11/M05 A3012 RMK A01 T01091053  RH  032%=      5-min Rain = 0
KBO1 160009Z 24005KT 11/M05 A3012 RMK A01 T01081052  RH  032%=      5-min Rain = 0
KBO1 160010Z 24005KT 11/M05 A3012 RMK A01 T01071051  RH  033%=      5-min Rain = 0
KBO1 160011Z 24005KT 11/M05 A3012 RMK A01 T01061051  RH  033%=      5-min Rain = 0
KBO1 160012Z 24005KT 11/M05 A3012 RMK A01 T01051050  RH  033%=      5-min Rain = 0
KBO1 160013Z 24005KT 10/M05 A3012 RMK A01 T01041050  RH  034%=      5-min Rain = 0
KBO1 160014Z 24005KT 10/M05 A3012 RMK A01 T01031049  RH  034%=      5-min Rain = 0
KBO1 160015Z 24005KT 10/M05 A3012 RMK A01 T01021049  RH  034%=      5-min Rain = 0
KBO1 160016Z 24005KT 10/M05 A3012 RMK A01 T01011049  RH  034%=      5-min Rain = 0
KBO1 160017Z 24005KT 10/M05 A3012 RMK A01 T01011048  RH  035%=      5-min Rain = 0
KBO1 160018Z 24005KT 10/M05 A3012 RMK A01 T01001047  RH  035%=      5-min Rain = 0
KBO1 160019Z 24005KT 10/M05 A3012 RMK A01 T00981048  RH  035%=      5-min Rain = 0
KBO1 160020Z 24004KT 10/M05 A3012 RMK A01 T00971048  RH  035%=      5-min Rain = 0
KBO1 160021Z 25004KT 10/M05 A3012 RMK A01 T00961048  RH  036%=      5-min Rain = 0
KBO1 160022Z 25004KT 10/M05 A3012 RMK A01 T00951048  RH  036%=      5-min Rain = 0
KBO1 160023Z 25004KT 09/M05 A3012 RMK A01 T00941054  RH  035%=      5-min Rain = 0
KBO1 160024Z 25004KT 09/M06 A3012 RMK A01 T00941056  RH  034%=      5-min Rain = 0
KBO1 160025Z 25004KT 09/M05 A3012 RMK A01 T00931051  RH  036%=      5-min Rain = 0
KBO1 160026Z 25004KT 09/M05 A3012 RMK A01 T00911050  RH  037%=      5-min Rain = 0
KBO1 160027Z 25004KT 09/M05 A3012 RMK A01 T00881048  RH  038%=      5-min Rain = 0
KBO1 160028Z 24005KT 09/M05 A3012 RMK A01 T00871051  RH  037%=      5-min Rain = 0
KBO1 160029Z 24004KT 09/M06 A3012 RMK A01 T00861055  RH  036%=      5-min Rain = 0
KBO1 160030Z 24005KT 09/M05 A3012 RMK A01 T00861054  RH  037%=      5-min Rain = 0
KBO1 160031Z 24005KT 09/M06 A3012 RMK A01 T00851056  RH  036%=      5-min Rain = 0
KBO1 160032Z 23004KT 09/M06 A3012 RMK A01 T00851055  RH  037%=      5-min Rain = 0
KBO1 160033Z 24005KT 08/M06 A3012 RMK A01 T00841055  RH  037%=      5-min Rain = 0
KBO1 160034Z 23005KT 08/M06 A3012 RMK A01 T00841055  RH  037%=      5-min Rain = 0
KBO1 160035Z 23005KT 08/M05 A3012 RMK A01 T00831054  RH  037%=      5-min Rain = 0
KBO1 160036Z 23005KT 08/M05 A3012 RMK A01 T00811054  RH  038%=      5-min Rain = 0
KBO1 160037Z 23005KT 08/M06 A3012 RMK A01 T00801055  RH  038%=      5-min Rain = 0
KBO1 160038Z 23005KT 08/M06 A3012 RMK A01 T00791055  RH  038%=      5-min Rain = 0
KBO1 160039Z 23005KT 08/M06 A3012 RMK A01 T00771055  RH  039%=      5-min Rain = 0
KBO1 160040Z 23005KT 08/M06 A3012 RMK A01 T00761056  RH  039%=      5-min Rain = 0
KBO1 160041Z 23005KT 08/M06 A3012 RMK A01 T00751057  RH  039%=      5-min Rain = 0
KBO1 160042Z 23005KT 08/M06 A3012 RMK A01 T00751056  RH  039%=      5-min Rain = 0
KBO1 160043Z 22005KT 08/M06 A3012 RMK A01 T00751057  RH  039%=      5-min Rain = 0
KBO1 160044Z 22005KT 08/M06 A3012 RMK A01 T00751057  RH  039%=      5-min Rain = 0
KBO1 160045Z 22005KT 07/M06 A3012 RMK A01 T00741058  RH  039%=      5-min Rain = 0
KBO1 160046Z 23005KT 07/M06 A3012 RMK A01 T00741058  RH  039%=      5-min Rain = 0
KBO1 160047Z 23005KT 07/M06 A3012 RMK A01 T00741058  RH  039%=      5-min Rain = 0
KBO1 160048Z 22005KT 07/M06 A3012 RMK A01 T00741059  RH  038%=      5-min Rain = 0
KBO1 160049Z 22005KT 07/M06 A3012 RMK A01 T00731060  RH  038%=      5-min Rain = 0
KBO1 160050Z 22005KT 07/M06 A3012 RMK A01 T00731060  RH  038%=      5-min Rain = 0
KBO1 160051Z 22006KT 07/M06 A3012 RMK A01 T00721059  RH  039%=      5-min Rain = 0
KBO1 160052Z 22006KT 07/M06 A3012 RMK A01 T00711058  RH  039%=      5-min Rain = 0
KBO1 160053Z 22006KT 07/M06 A3012 RMK A01 T00711057  RH  040%=      5-min Rain = 0
KBO1 160054Z 22006KT 07/M06 A3012 RMK A01 T00691056  RH  040%=      5-min Rain = 0
KBO1 160055Z 22006KT 07/M06 A3011 RMK A01 T00671056  RH  041%=      5-min Rain = 0
KBO1 160056Z 22006KT 07/M06 A3012 RMK A01 T00651055  RH  042%=      5-min Rain = 0
KBO1 160057Z 22006KT 06/M06 A3011 RMK A01 T00641055  RH  042%=      5-min Rain = 0
KBO1 160058Z 22006KT 06/M05 A3011 RMK A01 T00631054  RH  043%=      5-min Rain = 0
KBO1 160059Z 21006KT 06/M05 A3011 RMK A01 T00611054  RH  043%=      5-min Rain = 0
KBO1 160100Z 22006KT 06/M05 A3012 RMK A01 T00601054  RH  044%=      5-min Rain = 0
KBO1 160101Z 22006KT 06/M05 A3012 RMK A01 T00601053  RH  044%=      5-min Rain = 0
KBO1 160102Z 22006KT 06/M05 A3012 RMK A01 T00581053  RH  045%=      5-min Rain = 0
KBO1 160103Z 22006KT 06/M05 A3012 RMK A01 T00571052  RH  045%=      5-min Rain = 0
KBO1 160104Z 22005KT 06/M05 A3012 RMK A01 T00561053  RH  045%=      5-min Rain = 0
KBO1 160105Z 22005KT 06/M05 A3012 RMK A01 T00571053  RH  045%=      5-min Rain = 0
KBO1 160106Z 22005KT 06/M05 A3012 RMK A01 T00561054  RH  045%=      5-min Rain = 0
KBO1 160107Z 22005KT 06/M05 A3012 RMK A01 T00561054  RH  045%=      5-min Rain = 0
KBO1 160108Z 22006KT 06/M05 A3012 RMK A01 T00551053  RH  046%=      5-min Rain = 0
KBO1 160109Z 21006KT 05/M05 A3012 RMK A01 T00531053  RH  046%=      5-min Rain = 0
KBO1 160110Z 21006KT 05/M05 A3012 RMK A01 T00491052  RH  048%=      5-min Rain = 0
KBO1 160111Z 21005KT 05/M05 A3012 RMK A01 T00471052  RH  049%=      5-min Rain = 0
KBO1 160112Z 21006KT 05/M05 A3012 RMK A01 T00461052  RH  049%=      5-min Rain = 0
KBO1 160113Z 21006KT 05/M05 A3012 RMK A01 T00461052  RH  049%=      5-min Rain = 0
KBO1 160114Z 21006KT 05/M05 A3012 RMK A01 T00461052  RH  049%=      5-min Rain = 0
KBO1 160115Z 21006KT 05/M05 A3012 RMK A01 T00451052  RH  049%=      5-min Rain = 0
KBO1 160116Z 21007KT 05/M05 A3012 RMK A01 T00461052  RH  049%=      5-min Rain = 0
KBO1 160117Z 21007KT 05/M05 A3012 RMK A01 T00461051  RH  049%=      5-min Rain = 0
KBO1 160118Z 21007KT 05/M05 A3012 RMK A01 T00451052  RH  049%=      5-min Rain = 0
KBO1 160119Z 21007KT 05/M05 A3012 RMK A01 T00451053  RH  049%=      5-min Rain = 0
KBO1 160120Z 21008KT 05/M05 A3012 RMK A01 T00451053  RH  049%=      5-min Rain = 0
KBO1 160121Z 21008KT 05/M05 A3012 RMK A01 T00451052  RH  049%=      5-min Rain = 0
KBO1 160122Z 21008KT 04/M05 A3012 RMK A01 T00441052  RH  050%=      5-min Rain = 0
KBO1 160123Z 21007KT 04/M05 A3012 RMK A01 T00441052  RH  050%=      5-min Rain = 0
KBO1 160124Z 21007KT 04/M05 A3012 RMK A01 T00431052  RH  050%=      5-min Rain = 0
KBO1 160125Z 21007KT 04/M05 A3012 RMK A01 T00421052  RH  050%=      5-min Rain = 0
KBO1 160126Z 21007KT 04/M05 A3012 RMK A01 T00411051  RH  051%=      5-min Rain = 0
KBO1 160127Z 21008KT 04/M05 A3012 RMK A01 T00391050  RH  052%=      5-min Rain = 0
KBO1 160128Z 21007KT 04/M05 A3012 RMK A01 T00371050  RH  053%=      5-min Rain = 0
KBO1 160129Z 21007KT 04/M05 A3012 RMK A01 T00361050  RH  053%=      5-min Rain = 0
KBO1 160130Z 21007KT 04/M05 A3012 RMK A01 T00361048  RH  054%=      5-min Rain = 0
KBO1 160131Z 21007KT 04/M05 A3012 RMK A01 T00361047  RH  055%=      5-min Rain = 0
KBO1 160132Z 21007KT 04/M05 A3012 RMK A01 T00361048  RH  054%=      5-min Rain = 0
KBO1 160133Z 21007KT 04/M05 A3012 RMK A01 T00361048  RH  054%=      5-min Rain = 0
KBO1 160134Z 21007KT 04/M05 A3012 RMK A01 T00361047  RH  054%=      5-min Rain = 0
KBO1 160135Z 21007KT 04/M05 A3012 RMK A01 T00351048  RH  055%=      5-min Rain = 0
KBO1 160136Z 21007KT 03/M05 A3012 RMK A01 T00341047  RH  055%=      5-min Rain = 0
KBO1 160137Z 21007KT 03/M05 A3012 RMK A01 T00341047  RH  055%=      5-min Rain = 0
KBO1 160138Z 21007KT 03/M05 A3012 RMK A01 T00341048  RH  055%=      5-min Rain = 0
KBO1 160139Z 21007KT 04/M05 A3012 RMK A01 T00351048  RH  054%=      5-min Rain = 0
KBO1 160140Z 21007KT 04/M05 A3012 RMK A01 T00351048  RH  054%=      5-min Rain = 0
KBO1 160141Z 21007KT 04/M05 A3012 RMK A01 T00361048  RH  054%=      5-min Rain = 0
KBO1 160142Z 21007KT 04/M05 A3012 RMK A01 T00351048  RH  054%=      5-min Rain = 0
KBO1 160143Z 21007KT 04/M05 A3012 RMK A01 T00351048  RH  055%=      5-min Rain = 0
KBO1 160144Z 21007KT 03/M05 A3012 RMK A01 T00341048  RH  055%=      5-min Rain = 0
KBO1 160145Z 20008KT 03/M05 A3012 RMK A01 T00331048  RH  055%=      5-min Rain = 0
KBO1 160146Z 21008KT 03/M05 A3012 RMK A01 T00301049  RH  056%=      5-min Rain = 0
KBO1 160147Z 21007KT 03/M05 A3012 RMK A01 T00291049  RH  057%=      5-min Rain = 0
KBO1 160148Z 21007KT 03/M05 A3012 RMK A01 T00281049  RH  057%=      5-min Rain = 0
KBO1 160149Z 21007KT 03/M05 A3012 RMK A01 T00271049  RH  057%=      5-min Rain = 0
KBO1 160150Z 21008KT 03/M05 A3012 RMK A01 T00271050  RH  057%=      5-min Rain = 0
KBO1 160151Z 21008KT 03/M05 A3012 RMK A01 T00271051  RH  057%=      5-min Rain = 0
KBO1 160152Z 21007KT 03/M05 A3012 RMK A01 T00261051  RH  057%=      5-min Rain = 0
KBO1 160153Z 21007KT 03/M05 A3012 RMK A01 T00251050  RH  058%=      5-min Rain = 0
KBO1 160154Z 21007KT 03/M05 A3012 RMK A01 T00251049  RH  058%=      5-min Rain = 0
KBO1 160155Z 21007KT 03/M05 A3012 RMK A01 T00251049  RH  058%=      5-min Rain = 0
KBO1 160156Z 21007KT 03/M05 A3012 RMK A01 T00251049  RH  058%=      5-min Rain = 0
KBO1 160157Z 22007KT 03/M05 A3012 RMK A01 T00261050  RH  058%=      5-min Rain = 0
KBO1 160158Z 22008KT 03/M05 A3012 RMK A01 T00261049  RH  058%=      5-min Rain = 0
KBO1 160159Z 22008KT 03/M05 A3012 RMK A01 T00261048  RH  058%=      5-min Rain = 0
KBO1 160200Z 22008KT 03/M05 A3012 RMK A01 T00251048  RH  059%=      5-min Rain = 0
KBO1 160201Z 23008KT 03/M05 A3012 RMK A01 T00251047  RH  059%=      5-min Rain = 0
KBO1 160202Z 23009KT 02/M05 A3012 RMK A01 T00241047  RH  059%=      5-min Rain = 0
KBO1 160203Z 23009KT 02/M05 A3012 RMK A01 T00241046  RH  060%=      5-min Rain = 0
KBO1 160204Z 23009KT 02/M05 A3012 RMK A01 T00241046  RH  060%=      5-min Rain = 0
KBO1 160205Z 22010KT 02/M05 A3012 RMK A01 T00241046  RH  060%=      5-min Rain = 0
KBO1 160206Z 23009KT 02/M05 A3012 RMK A01 T00241046  RH  060%=      5-min Rain = 0
KBO1 160207Z 23008KT 02/M05 A3012 RMK A01 T00231045  RH  060%=      5-min Rain = 0
KBO1 160208Z 23008KT 02/M05 A3013 RMK A01 T00231045  RH  061%=      5-min Rain = 0
KBO1 160209Z 22009KT 02/M05 A3013 RMK A01 T00231046  RH  060%=      5-min Rain = 0
KBO1 160210Z 23009KT 02/M05 A3013 RMK A01 T00231047  RH  060%=      5-min Rain = 0
KBO1 160211Z 23009KT 02/M05 A3013 RMK A01 T00241046  RH  060%=      5-min Rain = 0
KBO1 160212Z 23009KT 02/M05 A3013 RMK A01 T00241047  RH  059%=      5-min Rain = 0
KBO1 160213Z 23009KT 03/M05 A3013 RMK A01 T00251047  RH  059%=      5-min Rain = 0
KBO1 160214Z 23008KT 03/M05 A3013 RMK A01 T00251047  RH  059%=      5-min Rain = 0
KBO1 160215Z 23008KT 03/M05 A3013 RMK A01 T00251046  RH  059%=      5-min Rain = 0
KBO1 160216Z 23008KT 02/M05 A3013 RMK A01 T00241046  RH  060%=      5-min Rain = 0
KBO1 160217Z 23008KT 02/M05 A3013 RMK A01 T00231046  RH  060%=      5-min Rain = 0
KBO1 160218Z 23008KT 02/M05 A3013 RMK A01 T00211047  RH  061%=      5-min Rain = 0
KBO1 160219Z 23008KT 02/M05 A3013 RMK A01 T00211047  RH  061%=      5-min Rain = 0
KBO1 160220Z 23008KT 02/M05 A3013 RMK A01 T00211047  RH  061%=      5-min Rain = 0
KBO1 160221Z 23008KT 02/M05 A3013 RMK A01 T00211047  RH  061%=      5-min Rain = 0
KBO1 160222Z 23008KT 02/M05 A3013 RMK A01 T00201047  RH  061%=      5-min Rain = 0
KBO1 160223Z 23008KT 02/M05 A3013 RMK A01 T00191047  RH  061%=      5-min Rain = 0
KBO1 160224Z 23008KT 02/M05 A3013 RMK A01 T00181048  RH  062%=      5-min Rain = 0
KBO1 160225Z 23008KT 02/M05 A3013 RMK A01 T00181049  RH  061%=      5-min Rain = 0
KBO1 160226Z 23008KT 02/M05 A3013 RMK A01 T00201049  RH  060%=      5-min Rain = 0
KBO1 160227Z 23008KT 02/M05 A3013 RMK A01 T00211048  RH  060%=      5-min Rain = 0
KBO1 160228Z 23008KT 02/M05 A3013 RMK A01 T00211048  RH  060%=      5-min Rain = 0
KBO1 160229Z 23009KT 02/M05 A3013 RMK A01 T00211048  RH  060%=      5-min Rain = 0
KBO1 160230Z 23009KT 02/M05 A3013 RMK A01 T00201049  RH  060%=      5-min Rain = 0
KBO1 160231Z 23009KT 02/M05 A3013 RMK A01 T00211049  RH  060%=      5-min Rain = 0
KBO1 160232Z 23009KT 02/M05 A3013 RMK A01 T00221049  RH  059%=      5-min Rain = 0
KBO1 160233Z 23008KT 02/M05 A3013 RMK A01 T00231048  RH  059%=      5-min Rain = 0
KBO1 160234Z 23009KT 02/M05 A3013 RMK A01 T00231048  RH  060%=      5-min Rain = 0
KBO1 160235Z 24009KT 02/M05 A3013 RMK A01 T00221048  RH  060%=      5-min Rain = 0
KBO1 160236Z 24008KT 02/M05 A3013 RMK A01 T00211048  RH  061%=      5-min Rain = 0
KBO1 160237Z 24009KT 02/M05 A3013 RMK A01 T00201047  RH  061%=      5-min Rain = 0
KBO1 160238Z 24009KT 02/M05 A3013 RMK A01 T00191047  RH  062%=      5-min Rain = 0
KBO1 160239Z 24009KT 02/M05 A3013 RMK A01 T00181046  RH  062%=      5-min Rain = 0
KBO1 160240Z 24009KT 02/M05 A3013 RMK A01 T00161046  RH  063%=      5-min Rain = 0
KBO1 160241Z 24010KT 02/M05 A3013 RMK A01 T00151046  RH  064%=      5-min Rain = 0
KBO1 160242Z 24009KT 02/M05 A3013 RMK A01 T00151046  RH  064%=      5-min Rain = 0
KBO1 160243Z 24010KT 02/M05 A3013 RMK A01 T00151045  RH  065%=      5-min Rain = 0
KBO1 160244Z 24010KT 01/M04 A3013 RMK A01 T00141044  RH  065%=      5-min Rain = 0
KBO1 160245Z 24010KT 01/M04 A3013 RMK A01 T00141044  RH  065%=      5-min Rain = 0
KBO1 160246Z 24010KT 01/M04 A3013 RMK A01 T00141044  RH  066%=      5-min Rain = 0
KBO1 160247Z 24010KT 01/M04 A3013 RMK A01 T00141043  RH  066%=      5-min Rain = 0
KBO1 160248Z 24010KT 02/M04 A3013 RMK A01 T00151042  RH  065%=      5-min Rain = 0
KBO1 160249Z 24010KT 02/M04 A3013 RMK A01 T00161042  RH  065%=      5-min Rain = 0
KBO1 160250Z 24009KT 02/M04 A3013 RMK A01 T00181040  RH  065%=      5-min Rain = 0
KBO1 160251Z 24009KT 02/M04 A3013 RMK A01 T00181040  RH  065%=      5-min Rain = 0
KBO1 160252Z 24009KT 02/M04 A3013 RMK A01 T00181040  RH  066%=      5-min Rain = 0
KBO1 160253Z 24009KT 02/M04 A3013 RMK A01 T00171040  RH  066%=      5-min Rain = 0
KBO1 160254Z 24009KT 02/M04 A3013 RMK A01 T00171039  RH  066%=      5-min Rain = 0
KBO1 160255Z 24009KT 02/M04 A3013 RMK A01 T00161039  RH  067%=      5-min Rain = 0
KBO1 160256Z 24009KT 02/M04 A3013 RMK A01 T00161039  RH  067%=      5-min Rain = 0
KBO1 160257Z 24009KT 02/M04 A3013 RMK A01 T00151039  RH  067%=      5-min Rain = 0
KBO1 160258Z 24009KT 01/M04 A3013 RMK A01 T00141039  RH  068%=      5-min Rain = 0
KBO1 160259Z 24010KT 01/M04 A3013 RMK A01 T00131039  RH  068%=      5-min Rain = 0
KBO1 160300Z 24009KT 01/M04 A3013 RMK A01 T00131038  RH  069%=      5-min Rain = 0
KBO1 160301Z 24009KT 01/M04 A3013 RMK A01 T00121038  RH  069%=      5-min Rain = 0
KBO1 160302Z 24009KT 01/M04 A3013 RMK A01 T00121038  RH  069%=      5-min Rain = 0
KBO1 160303Z 25009KT 01/M04 A3013 RMK A01 T00111039  RH  069%=      5-min Rain = 0
KBO1 160304Z 25009KT 01/M04 A3013 RMK A01 T00101039  RH  070%=      5-min Rain = 0
KBO1 160305Z 24009KT 01/M04 A3013 RMK A01 T00101039  RH  070%=      5-min Rain = 0
KBO1 160306Z 25009KT 01/M04 A3013 RMK A01 T00081039  RH  070%=      5-min Rain = 0
KBO1 160307Z 24009KT 01/M04 A3013 RMK A01 T00081039  RH  070%=      5-min Rain = 0
KBO1 160308Z 24009KT 01/M04 A3013 RMK A01 T00091039  RH  070%=      5-min Rain = 0
KBO1 160309Z 24009KT 01/M04 A3013 RMK A01 T00091039  RH  070%=      5-min Rain = 0
KBO1 160310Z 25009KT 01/M04 A3013 RMK A01 T00091039  RH  070%=      5-min Rain = 0
KBO1 160311Z 25009KT 01/M04 A3013 RMK A01 T00091039  RH  070%=      5-min Rain = 0
KBO1 160312Z 25010KT 01/M04 A3013 RMK A01 T00091039  RH  070%=      5-min Rain = 0
KBO1 160313Z 25010KT 01/M04 A3013 RMK A01 T00091039  RH  070%=      5-min Rain = 0
KBO1 160314Z 25010KT 01/M04 A3014 RMK A01 T00091039  RH  070%=      5-min Rain = 0
KBO1 160315Z 25009KT 01/M04 A3014 RMK A01 T00101038  RH  070%=      5-min Rain = 0
KBO1 160316Z 25010KT 01/M04 A3014 RMK A01 T00111038  RH  070%=      5-min Rain = 0
KBO1 160317Z 25009KT 01/M04 A3014 RMK A01 T00111038  RH  070%=      5-min Rain = 0
KBO1 160318Z 24009KT 01/M04 A3014 RMK A01 T00111039  RH  069%=      5-min Rain = 0
KBO1 160319Z 25010KT 01/M04 A3014 RMK A01 T00111038  RH  069%=      5-min Rain = 0
KBO1 160320Z 25010KT 01/M04 A3014 RMK A01 T00111039  RH  069%=      5-min Rain = 0
KBO1 160321Z 25010KT 01/M04 A3014 RMK A01 T00111039  RH  069%=      5-min Rain = 0
KBO1 160322Z 25010KT 01/M04 A3014 RMK A01 T00111040  RH  069%=      5-min Rain = 0
KBO1 160323Z 25010KT 01/M04 A3014 RMK A01 T00121040  RH  068%=      5-min Rain = 0
KBO1 160324Z 25010KT 01/M04 A3014 RMK A01 T00121040  RH  068%=      5-min Rain = 0
KBO1 160325Z 25010KT 01/M04 A3014 RMK A01 T00121040  RH  068%=      5-min Rain = 0
KBO1 160326Z 25010KT 01/M04 A3014 RMK A01 T00121040  RH  068%=      5-min Rain = 0
KBO1 160327Z 25010KT 01/M04 A3014 RMK A01 T00111040  RH  068%=      5-min Rain = 0
KBO1 160328Z 25010KT 01/M04 A3014 RMK A01 T00111041  RH  068%=      5-min Rain = 0
KBO1 160329Z 25010KT 01/M04 A3014 RMK A01 T00111041  RH  068%=      5-min Rain = 0
KBO1 160330Z 25010KT 01/M04 A3014 RMK A01 T00111041  RH  068%=      5-min Rain = 0
KBO1 160331Z 25010KT 01/M04 A3014 RMK A01 T00111041  RH  068%=      5-min Rain = 0
KBO1 160332Z 24010KT 01/M04 A3014 RMK A01 T00111042  RH  068%=      5-min Rain = 0
KBO1 160333Z 24010KT 01/M04 A3014 RMK A01 T00111042  RH  068%=      5-min Rain = 0
KBO1 160334Z 24010KT 01/M04 A3014 RMK A01 T00111042  RH  068%=      5-min Rain = 0
KBO1 160335Z 24010KT 01/M04 A3014 RMK A01 T00111042  RH  067%=      5-min Rain = 0
KBO1 160336Z 24011KT 01/M04 A3014 RMK A01 T00111042  RH  067%=      5-min Rain = 0
KBO1 160337Z 24011KT 01/M04 A3014 RMK A01 T00121042  RH  067%=      5-min Rain = 0
KBO1 160338Z 24011KT 01/M04 A3014 RMK A01 T00121042  RH  067%=      5-min Rain = 0
KBO1 160339Z 24011KT 01/M04 A3014 RMK A01 T00131042  RH  067%=      5-min Rain = 0
KBO1 160340Z 24011KT 01/M04 A3014 RMK A01 T00131042  RH  067%=      5-min Rain = 0
KBO1 160341Z 24011KT 01/M04 A3014 RMK A01 T00141042  RH  066%=      5-min Rain = 0
KBO1 160342Z 24011KT 01/M04 A3014 RMK A01 T00141043  RH  066%=      5-min Rain = 0
KBO1 160343Z 24011KT 02/M04 A3014 RMK A01 T00151043  RH  066%=      5-min Rain = 0
KBO1 160344Z 24011KT 02/M04 A3014 RMK A01 T00151043  RH  066%=      5-min Rain = 0
KBO1 160345Z 24011KT 02/M04 A3014 RMK A01 T00151043  RH  066%=      5-min Rain = 0
KBO1 160346Z 24010KT 01/M04 A3014 RMK A01 T00131043  RH  066%=      5-min Rain = 0
KBO1 160347Z 24010KT 01/M04 A3014 RMK A01 T00121044  RH  067%=      5-min Rain = 0
KBO1 160348Z 24010KT 01/M04 A3014 RMK A01 T00101044  RH  067%=      5-min Rain = 0
KBO1 160349Z 24010KT 01/M04 A3014 RMK A01 T00091044  RH  068%=      5-min Rain = 0
KBO1 160350Z 24011KT 01/M05 A3014 RMK A01 T00071045  RH  068%=      5-min Rain = 0
KBO1 160351Z 24011KT 01/M05 A3014 RMK A01 T00061045  RH  069%=      5-min Rain = 0
KBO1 160352Z 24011KT 01/M05 A3014 RMK A01 T00051045  RH  069%=      5-min Rain = 0
KBO1 160353Z 24010KT 00/M05 A3014 RMK A01 T00041045  RH  070%=      5-min Rain = 0
KBO1 160354Z 24010KT 00/M04 A3014 RMK A01 T00041044  RH  070%=      5-min Rain = 0
KBO1 160355Z 24011KT 00/M04 A3014 RMK A01 T00041044  RH  070%=      5-min Rain = 0
KBO1 160356Z 24011KT 00/M04 A3014 RMK A01 T00041044  RH  070%=      5-min Rain = 0
KBO1 160357Z 24011KT 00/M04 A3014 RMK A01 T00041044  RH  070%=      5-min Rain = 0
KBO1 160358Z 24011KT 01/M04 A3013 RMK A01 T00061043  RH  070%=      5-min Rain = 0
KBO1 160359Z 24011KT 01/M04 A3013 RMK A01 T00071043  RH  069%=      5-min Rain = 0
KBO1 160400Z 24010KT 01/M04 A3013 RMK A01 T00081042  RH  069%=      5-min Rain = 0
KBO1 160401Z 24010KT 01/M04 A3013 RMK A01 T00081042  RH  069%=      5-min Rain = 0
KBO1 160402Z 24011KT 01/M04 A3013 RMK A01 T00091042  RH  069%=      5-min Rain = 0
KBO1 160403Z 24011KT 01/M04 A3013 RMK A01 T00081042  RH  069%=      5-min Rain = 0
KBO1 160404Z 24011KT 01/M04 A3013 RMK A01 T00081042  RH  069%=      5-min Rain = 0
KBO1 160405Z 24011KT 01/M04 A3013 RMK A01 T00091042  RH  069%=      5-min Rain = 0
KBO1 160406Z 24011KT 01/M04 A3013 RMK A01 T00091042  RH  069%=      5-min Rain = 0
KBO1 160407Z 24011KT 01/M04 A3013 RMK A01 T00091042  RH  069%=      5-min Rain = 0
KBO1 160408Z 24010KT 01/M04 A3013 RMK A01 T00091043  RH  069%=      5-min Rain = 0
KBO1 160409Z 24011KT 01/M04 A3013 RMK A01 T00091042  RH  068%=      5-min Rain = 0
KBO1 160410Z 24011KT 01/M04 A3013 RMK A01 T00101042  RH  068%=      5-min Rain = 0
KBO1 160411Z 24011KT 01/M04 A3013 RMK A01 T00091042  RH  068%=      5-min Rain = 0
KBO1 160412Z 24011KT 01/M04 A3013 RMK A01 T00091042  RH  068%=      5-min Rain = 0
KBO1 160413Z 24011KT 01/M04 A3013 RMK A01 T00091042  RH  069%=      5-min Rain = 0
KBO1 160414Z 24010KT 01/M04 A3013 RMK A01 T00091042  RH  069%=      5-min Rain = 0
KBO1 160415Z 24010KT 01/M04 A3013 RMK A01 T00081042  RH  069%=      5-min Rain = 0
KBO1 160416Z 24010KT 01/M04 A3013 RMK A01 T00081043  RH  069%=      5-min Rain = 0
KBO1 160417Z 24011KT 01/M04 A3013 RMK A01 T00081042  RH  069%=      5-min Rain = 0
KBO1 160418Z 24011KT 01/M04 A3013 RMK A01 T00081043  RH  069%=      5-min Rain = 0
KBO1 160419Z 24010KT 01/M04 A3013 RMK A01 T00071043  RH  069%=      5-min Rain = 0
KBO1 160420Z 24011KT 01/M04 A3013 RMK A01 T00071043  RH  069%=      5-min Rain = 0
KBO1 160421Z 24011KT 01/M04 A3013 RMK A01 T00071043  RH  069%=      5-min Rain = 0
KBO1 160422Z 24011KT 01/M04 A3013 RMK A01 T00071043  RH  069%=      5-min Rain = 0
KBO1 160423Z 24011KT 01/M04 A3013 RMK A01 T00071043  RH  069%=      5-min Rain = 0
KBO1 160424Z 24011KT 01/M04 A3013 RMK A01 T00061043  RH  070%=      5-min Rain = 0
KBO1 160425Z 24011KT 01/M04 A3013 RMK A01 T00061043  RH  070%=      5-min Rain = 0
KBO1 160426Z 24011KT 01/M04 A3013 RMK A01 T00061043  RH  070%=      5-min Rain = 0
KBO1 160427Z 24011KT 01/M04 A3013 RMK A01 T00061043  RH  070%=      5-min Rain = 0
KBO1 160428Z 24011KT 01/M04 A3013 RMK A01 T00071043  RH  069%=      5-min Rain = 0
KBO1 160429Z 24011KT 01/M04 A3013 RMK A01 T00071043  RH  069%=      5-min Rain = 0
KBO1 160430Z 24011KT 01/M04 A3013 RMK A01 T00071043  RH  069%=      5-min Rain = 0
KBO1 160431Z 24011KT 01/M04 A3013 RMK A01 T00081043  RH  069%=      5-min Rain = 0
KBO1 160432Z 24011KT 01/M04 A3013 RMK A01 T00071043  RH  069%=      5-min Rain = 0
KBO1 160433Z 24011KT 01/M04 A3013 RMK A01 T00081043  RH  069%=      5-min Rain = 0
KBO1 160434Z 24011KT 01/M04 A3013 RMK A01 T00081042  RH  069%=      5-min Rain = 0
KBO1 160435Z 24011KT 01/M04 A3013 RMK A01 T00071043  RH  069%=      5-min Rain = 0
KBO1 160436Z 24010KT 01/M04 A3013 RMK A01 T00071043  RH  069%=      5-min Rain = 0
KBO1 160437Z 24011KT 01/M04 A3013 RMK A01 T00071043  RH  069%=      5-min Rain = 0
KBO1 160438Z 24011KT 01/M04 A3013 RMK A01 T00071043  RH  069%=      5-min Rain = 0
KBO1 160439Z 24011KT 01/M04 A3013 RMK A01 T00061043  RH  069%=      5-min Rain = 0
KBO1 160440Z 24011KT 01/M04 A3013 RMK A01 T00071043  RH  069%=      5-min Rain = 0
KBO1 160441Z 24011KT 01/M04 A3013 RMK A01 T00061043  RH  069%=      5-min Rain = 0
KBO1 160442Z 24011KT 01/M04 A3013 RMK A01 T00061043  RH  070%=      5-min Rain = 0
KBO1 160443Z 24011KT 01/M04 A3013 RMK A01 T00051043  RH  070%=      5-min Rain = 0
KBO1 160444Z 24011KT 01/M04 A3013 RMK A01 T00051043  RH  070%=      5-min Rain = 0
KBO1 160445Z 24011KT 01/M04 A3013 RMK A01 T00051043  RH  070%=      5-min Rain = 0
KBO1 160446Z 24011KT 01/M04 A3012 RMK A01 T00051044  RH  070%=      5-min Rain = 0
KBO1 160447Z 24011KT 01/M04 A3012 RMK A01 T00051044  RH  070%=      5-min Rain = 0
KBO1 160448Z 24011KT 01/M04 A3012 RMK A01 T00051044  RH  070%=      5-min Rain = 0
KBO1 160449Z 24011KT 01/M04 A3012 RMK A01 T00051044  RH  070%=      5-min Rain = 0
KBO1 160450Z 24011KT 01/M04 A3012 RMK A01 T00051044  RH  070%=      5-min Rain = 0
KBO1 160451Z 24011KT 01/M04 A3012 RMK A01 T00051044  RH  070%=      5-min Rain = 0
KBO1 160452Z 24011KT 01/M04 A3012 RMK A01 T00051044  RH  070%=      5-min Rain = 0
KBO1 160453Z 24011KT 01/M04 A3012 RMK A01 T00061044  RH  070%=      5-min Rain = 0
KBO1 160454Z 24011KT 01/M04 A3012 RMK A01 T00061044  RH  069%=      5-min Rain = 0
KBO1 160455Z 24011KT 01/M04 A3012 RMK A01 T00051044  RH  069%=      5-min Rain = 0
KBO1 160456Z 24011KT 01/M04 A3012 RMK A01 T00061044  RH  069%=      5-min Rain = 0
KBO1 160457Z 24012KT 01/M04 A3012 RMK A01 T00061044  RH  069%=      5-min Rain = 0
KBO1 160458Z 24011KT 01/M04 A3012 RMK A01 T00071044  RH  069%=      5-min Rain = 0
KBO1 160459Z 24012KT 01/M04 A3012 RMK A01 T00061044  RH  069%=      5-min Rain = 0
KBO1 160500Z 24011KT 01/M04 A3012 RMK A01 T00071044  RH  069%=      5-min Rain = 0
KBO1 160501Z 24011KT 01/M04 A3012 RMK A01 T00071044  RH  069%=      5-min Rain = 0
KBO1 160502Z 24011KT 01/M04 A3012 RMK A01 T00081044  RH  068%=      5-min Rain = 0
KBO1 160503Z 24011KT 01/M04 A3012 RMK A01 T00081044  RH  068%=      5-min Rain = 0
KBO1 160504Z 24011KT 01/M04 A3012 RMK A01 T00071044  RH  069%=      5-min Rain = 0
KBO1 160505Z 24012KT 01/M04 A3012 RMK A01 T00061044  RH  069%=      5-min Rain = 0
KBO1 160506Z 24012KT 01/M04 A3012 RMK A01 T00071044  RH  069%=      5-min Rain = 0
KBO1 160507Z 24011KT 01/M05 A3012 RMK A01 T00071045  RH  069%=      5-min Rain = 0
KBO1 160508Z 24011KT 01/M04 A3012 RMK A01 T00071044  RH  068%=      5-min Rain = 0
KBO1 160509Z 24012KT 01/M04 A3012 RMK A01 T00071044  RH  068%=      5-min Rain = 0
KBO1 160510Z 24011KT 01/M04 A3012 RMK A01 T00071044  RH  068%=      5-min Rain = 0
KBO1 160511Z 24011KT 01/M04 A3012 RMK A01 T00081044  RH  068%=      5-min Rain = 0
KBO1 160512Z 24011KT 01/M05 A3012 RMK A01 T00081045  RH  068%=      5-min Rain = 0
KBO1 160513Z 24011KT 01/M04 A3012 RMK A01 T00091044  RH  068%=      5-min Rain = 0
KBO1 160514Z 24011KT 01/M04 A3012 RMK A01 T00091044  RH  068%=      5-min Rain = 0
KBO1 160515Z 24011KT 01/M04 A3012 RMK A01 T00091044  RH  068%=      5-min Rain = 0
KBO1 160516Z 24011KT 01/M04 A3012 RMK A01 T00091044  RH  068%=      5-min Rain = 0
KBO1 160517Z 24011KT 01/M04 A3012 RMK A01 T00081044  RH  068%=      5-min Rain = 0
KBO1 160518Z 24010KT 01/M04 A3012 RMK A01 T00081044  RH  068%=      5-min Rain = 0
KBO1 160519Z 24011KT 01/M05 A3012 RMK A01 T00081045  RH  068%=      5-min Rain = 0
KBO1 160520Z 24011KT 01/M05 A3012 RMK A01 T00071045  RH  068%=      5-min Rain = 0
KBO1 160521Z 24011KT 01/M05 A3012 RMK A01 T00071045  RH  068%=      5-min Rain = 0
KBO1 160522Z 24011KT 01/M05 A3012 RMK A01 T00071045  RH  068%=      5-min Rain = 0
KBO1 160523Z 24011KT 01/M05 A3012 RMK A01 T00071045  RH  068%=      5-min Rain = 0
KBO1 160524Z 24011KT 01/M05 A3012 RMK A01 T00071045  RH  068%=      5-min Rain = 0
KBO1 160525Z 24011KT 01/M05 A3012 RMK A01 T00071045  RH  068%=      5-min Rain = 0
KBO1 160526Z 24012KT 01/M05 A3012 RMK A01 T00071045  RH  068%=      5-min Rain = 0
KBO1 160527Z 24011KT 01/M05 A3012 RMK A01 T00071045  RH  068%=      5-min Rain = 0
KBO1 160528Z 24011KT 01/M05 A3012 RMK A01 T00081045  RH  068%=      5-min Rain = 0
KBO1 160529Z 24012KT 01/M05 A3012 RMK A01 T00071045  RH  068%=      5-min Rain = 0
KBO1 160530Z 24012KT 01/M05 A3012 RMK A01 T00071045  RH  068%=      5-min Rain = 0
KBO1 160531Z 24011KT 01/M05 A3012 RMK A01 T00071045  RH  068%=      5-min Rain = 0
KBO1 160532Z 24012KT 01/M05 A3012 RMK A01 T00071045  RH  068%=      5-min Rain = 0
KBO1 160533Z 24011KT 01/M05 A3012 RMK A01 T00061045  RH  068%=      5-min Rain = 0
KBO1 160534Z 24011KT 01/M05 A3012 RMK A01 T00061045  RH  069%=      5-min Rain = 0
KBO1 160535Z 24011KT 01/M05 A3012 RMK A01 T00051045  RH  069%=      5-min Rain = 0
KBO1 160536Z 24012KT 01/M05 A3012 RMK A01 T00051045  RH  069%=      5-min Rain = 0
KBO1 160537Z 24011KT 00/M05 A3012 RMK A01 T00041046  RH  069%=      5-min Rain = 0
KBO1 160538Z 24011KT 00/M05 A3012 RMK A01 T00041045  RH  069%=      5-min Rain = 0
KBO1 160539Z 24011KT 00/M05 A3012 RMK A01 T00041045  RH  070%=      5-min Rain = 0
KBO1 160540Z 24011KT 00/M05 A3012 RMK A01 T00041045  RH  070%=      5-min Rain = 0
KBO1 160541Z 24011KT 00/M05 A3012 RMK A01 T00031045  RH  070%=      5-min Rain = 0
KBO1 160542Z 24011KT 00/M05 A3012 RMK A01 T00031045  RH  070%=      5-min Rain = 0
KBO1 160543Z 24011KT 00/M05 A3012 RMK A01 T00031045  RH  070%=      5-min Rain = 0
KBO1 160544Z 24011KT 00/M05 A3012 RMK A01 T00021046  RH  070%=      5-min Rain = 0
KBO1 160545Z 24011KT 00/M05 A3011 RMK A01 T00021046  RH  070%=      5-min Rain = 0
KBO1 160546Z 24011KT 00/M05 A3011 RMK A01 T00021046  RH  070%=      5-min Rain = 0
KBO1 160547Z 24011KT 00/M05 A3011 RMK A01 T00021046  RH  070%=      5-min Rain = 0
KBO1 160548Z 24011KT 00/M05 A3011 RMK A01 T00021046  RH  070%=      5-min Rain = 0
KBO1 160549Z 24011KT 00/M05 A3011 RMK A01 T00021046  RH  070%=      5-min Rain = 0
KBO1 160550Z 24011KT 00/M05 A3011 RMK A01 T00021046  RH  070%=      5-min Rain = 0
KBO1 160551Z 24011KT 00/M05 A3011 RMK A01 T00011046  RH  071%=      5-min Rain = 0
KBO1 160552Z 24012KT 00/M05 A3011 RMK A01 T00011046  RH  071%=      5-min Rain = 0
KBO1 160553Z 24012KT 00/M05 A3011 RMK A01 T00011046  RH  071%=      5-min Rain = 0
KBO1 160554Z 24012KT 00/M05 A3011 RMK A01 T00021046  RH  070%=      5-min Rain = 0
KBO1 160555Z 24012KT 00/M05 A3011 RMK A01 T00031046  RH  070%=      5-min Rain = 0
KBO1 160556Z 24012KT 00/M05 A3011 RMK A01 T00041046  RH  069%=      5-min Rain = 0
KBO1 160557Z 24012KT 00/M05 A3011 RMK A01 T00041045  RH  070%=      5-min Rain = 0
KBO1 160558Z 24012KT 00/M05 A3011 RMK A01 T00041045  RH  070%=      5-min Rain = 0
KBO1 160559Z 24011KT 00/M05 A3011 RMK A01 T00031046  RH  070%=      5-min Rain = 0

Page generated in 0.1803 seconds.